Wetterdaten: Dienstag, 07.03.2023
Datum Zeit Temp. Aussen Temp. o. S. Temp +5cm Feuchte Auss Luftdruck Regen Sonnenschein Regendauer Solar Windben Empfang
07.03.2023 00:00 4,0 C 3,3 C -0,6 C 93 % 1000,4 hPa 0,0 l/m 0 min 2 min 0 W/m 16,1 km/h (3 Bft) 97,87 %
07.03.2023 00:02 4,0 C 3,3 C -0,6 C 93 % 1000,3 hPa 0,0 l/m 0 min 2 min 0 W/m 25,7 km/h (4 Bft) 95,65 %
07.03.2023 00:04 4,0 C 3,3 C -0,6 C 93 % 1000,4 hPa 0,0 l/m 0 min 2 min 0 W/m 29,0 km/h (5 Bft) 97,87 %
07.03.2023 00:07 4,0 C 3,3 C -0,6 C 93 % 1000,3 hPa 0,0 l/m 0 min 3 min 0 W/m 25,7 km/h (4 Bft) 95,24 %
07.03.2023 00:10 4,0 C 3,3 C 0,0 C 93 % 1000,3 hPa 0,0 l/m 0 min 3 min 0 W/m 35,4 km/h (5 Bft) 98,57 %
07.03.2023 00:12 4,0 C 3,3 C 0,0 C 93 % 1000,2 hPa 0,0 l/m 0 min 2 min 0 W/m 22,5 km/h (4 Bft) 97,87 %
07.03.2023 00:14 4,1 C 3,3 C 0,0 C 93 % 1000,2 hPa 0,0 l/m 0 min 2 min 0 W/m 32,2 km/h (5 Bft) 97,87 %
07.03.2023 00:16 4,0 C 3,3 C 0,0 C 93 % 1000,2 hPa 0,0 l/m 0 min 2 min 0 W/m 16,1 km/h (3 Bft) 97,87 %
07.03.2023 00:18 4,0 C 3,3 C 0,0 C 94 % 1000,3 hPa 0,0 l/m 0 min 2 min 0 W/m 22,5 km/h (4 Bft) 93,48 %
07.03.2023 00:20 4,1 C 3,3 C 0,0 C 94 % 1000,3 hPa 0,0 l/m 0 min 2 min 0 W/m 25,7 km/h (4 Bft) 95,74 %
07.03.2023 00:22 4,1 C 3,3 C 0,0 C 93 % 1000,2 hPa 0,0 l/m 0 min 2 min 0 W/m 35,4 km/h (5 Bft) 91,49 %
07.03.2023 00:24 4,1 C 3,3 C 0,0 C 93 % 1000,3 hPa 0,0 l/m 0 min 2 min 0 W/m 25,7 km/h (4 Bft) 95,74 %
07.03.2023 00:26 4,1 C 3,3 C 0,0 C 94 % 1000,2 hPa 0,0 l/m 0 min 2 min 0 W/m 16,1 km/h (3 Bft) 93,62 %
07.03.2023 00:28 4,1 C 3,3 C 0,0 C 94 % 1000,2 hPa 0,0 l/m 0 min 0 min 0 W/m 25,7 km/h (4 Bft) 95,74 %
07.03.2023 00:30 4,1 C 3,3 C 0,0 C 94 % 1000,2 hPa 0,0 l/m 0 min 2 min 0 W/m 19,3 km/h (3 Bft) 95,45 %
07.03.2023 00:32 4,1 C 3,3 C 0,0 C 94 % 1000,3 hPa 0,0 l/m 0 min 0 min 0 W/m 25,7 km/h (4 Bft) 95,74 %
07.03.2023 00:34 4,1 C 3,3 C 0,0 C 94 % 1000,2 hPa 0,0 l/m 0 min 0 min 0 W/m 25,7 km/h (4 Bft) 95,74 %
07.03.2023 00:36 4,1 C 3,3 C 0,0 C 94 % 1000,3 hPa 0,0 l/m 0 min 0 min 0 W/m 19,3 km/h (3 Bft) 91,30 %
07.03.2023 00:38 4,1 C 3,3 C 0,0 C 94 % 1000,2 hPa 0,0 l/m 0 min 0 min 0 W/m 19,3 km/h (3 Bft) 93,62 %
07.03.2023 00:40 4,1 C 3,3 C 0,0 C 94 % 1000,2 hPa 0,0 l/m 0 min 0 min 0 W/m 22,5 km/h (4 Bft) 97,87 %
07.03.2023 00:42 4,1 C 3,3 C 0,0 C 94 % 1000,2 hPa 0,0 l/m 0 min 0 min 0 W/m 19,3 km/h (3 Bft) 95,74 %
07.03.2023 00:44 4,1 C 3,3 C 0,0 C 94 % 1000,1 hPa 0,0 l/m 0 min 0 min 0 W/m 22,5 km/h (4 Bft) 95,74 %
07.03.2023 00:46 4,1 C 3,3 C 0,0 C 94 % 1000,1 hPa 0,0 l/m 0 min 0 min 0 W/m 22,5 km/h (4 Bft) 95,74 %
07.03.2023 00:48 4,1 C 3,3 C 0,0 C 94 % 1000,1 hPa 0,0 l/m 0 min 0 min 0 W/m 29,0 km/h (5 Bft) 93,48 %
07.03.2023 00:50 4,1 C 3,3 C 0,0 C 94 % 1000,1 hPa 0,0 l/m 0 min 0 min 0 W/m 19,3 km/h (3 Bft) 95,74 %
07.03.2023 00:52 4,1 C 3,3 C 0,0 C 94 % 1000,1 hPa 0,0 l/m 0 min 0 min 0 W/m 19,3 km/h (3 Bft) 93,62 %
07.03.2023 00:54 4,1 C 3,3 C 0,0 C 94 % 1000,1 hPa 0,0 l/m 0 min 2 min 0 W/m 22,5 km/h (4 Bft) 93,62 %
07.03.2023 00:56 4,1 C 3,3 C 0,0 C 94 % 1000,1 hPa 0,0 l/m 0 min 2 min 0 W/m 25,7 km/h (4 Bft) 93,62 %
07.03.2023 00:58 4,1 C 3,3 C 0,0 C 94 % 1000,1 hPa 0,2 l/m 0 min 2 min 0 W/m 25,7 km/h (4 Bft) 95,74 %
07.03.2023 01:00 4,1 C 3,3 C 0,0 C 94 % 1000,0 hPa 0,0 l/m 0 min 2 min 0 W/m 19,3 km/h (3 Bft) 95,74 %
07.03.2023 01:02 4,1 C 3,3 C 0,0 C 94 % 1000,0 hPa 0,0 l/m 0 min 2 min 0 W/m 35,4 km/h (5 Bft) 95,65 %
07.03.2023 01:04 4,1 C 3,3 C 0,0 C 94 % 1000,0 hPa 0,0 l/m 0 min 2 min 0 W/m 19,3 km/h (3 Bft) 95,74 %
07.03.2023 01:06 4,1 C 3,3 C 0,0 C 94 % 1000,0 hPa 0,0 l/m 0 min 2 min 0 W/m 19,3 km/h (3 Bft) 93,22 %
07.03.2023 01:08 4,1 C 3,3 C 0,0 C 94 % 1000,0 hPa 0,0 l/m 0 min 2 min 0 W/m 29,0 km/h (5 Bft) 94,29 %
07.03.2023 01:10 4,1 C 3,3 C 0,0 C 94 % 1000,0 hPa 0,0 l/m 0 min 2 min 0 W/m 22,5 km/h (4 Bft) 95,74 %
07.03.2023 01:12 4,1 C 3,3 C 0,0 C 94 % 1000,1 hPa 0,0 l/m 0 min 2 min 0 W/m 22,5 km/h (4 Bft) 97,87 %
07.03.2023 01:14 4,1 C 3,3 C 0,0 C 94 % 1000,0 hPa 0,0 l/m 0 min 2 min 0 W/m 22,5 km/h (4 Bft) 100,00 %
07.03.2023 01:16 4,1 C 3,3 C 0,0 C 95 % 1000,0 hPa 0,0 l/m 0 min 2 min 0 W/m 9,7 km/h (2 Bft) 93,62 %
07.03.2023 01:18 4,1 C 3,3 C 0,0 C 95 % 1000,0 hPa 0,0 l/m 0 min 2 min 0 W/m 22,5 km/h (4 Bft) 100,00 %
07.03.2023 01:20 4,1 C 3,3 C 0,0 C 95 % 1000,0 hPa 0,2 l/m 0 min 2 min 0 W/m 19,3 km/h (3 Bft) 98,11 %
07.03.2023 01:22 4,1 C 3,3 C 0,0 C 95 % 1000,0 hPa 0,0 l/m 0 min 2 min 0 W/m 29,0 km/h (5 Bft) 100,00 %
07.03.2023 01:24 4,1 C 3,3 C 0,0 C 95 % 1000,0 hPa 0,0 l/m 0 min 2 min 0 W/m 22,5 km/h (4 Bft) 100,00 %
07.03.2023 01:26 4,1 C 3,3 C 0,0 C 95 % 999,9 hPa 0,0 l/m 0 min 2 min 0 W/m 22,5 km/h (4 Bft) 100,00 %
07.03.2023 01:28 4,1 C 3,3 C 0,0 C 95 % 1000,0 hPa 0,0 l/m 0 min 2 min 0 W/m 16,1 km/h (3 Bft) 100,00 %
07.03.2023 01:30 4,1 C 3,3 C 0,0 C 95 % 1000,0 hPa 0,0 l/m 0 min 2 min 0 W/m 19,3 km/h (3 Bft) 100,00 %
07.03.2023 01:32 4,1 C 3,3 C 0,0 C 95 % 999,9 hPa 0,2 l/m 0 min 2 min 0 W/m 16,1 km/h (3 Bft) 100,00 %
07.03.2023 01:34 4,1 C 3,3 C 0,0 C 95 % 1000,0 hPa 0,0 l/m 0 min 2 min 0 W/m 19,3 km/h (3 Bft) 100,00 %
07.03.2023 01:36 4,1 C 3,3 C 0,0 C 95 % 999,9 hPa 0,0 l/m 0 min 2 min 0 W/m 19,3 km/h (3 Bft) 100,00 %
07.03.2023 01:38 4,1 C 3,3 C 0,0 C 95 % 999,9 hPa 0,0 l/m 0 min 2 min 0 W/m 9,7 km/h (2 Bft) 100,00 %
07.03.2023 01:40 4,1 C 3,3 C 0,0 C 95 % 1000,0 hPa 0,2 l/m 0 min 2 min 0 W/m 16,1 km/h (3 Bft) 100,00 %
07.03.2023 01:42 4,1 C 3,3 C 0,0 C 95 % 999,9 hPa 0,0 l/m 0 min 2 min 0 W/m 22,5 km/h (4 Bft) 100,00 %
07.03.2023 01:44 4,1 C 3,3 C 0,0 C 95 % 999,9 hPa 0,0 l/m 0 min 2 min 0 W/m 12,9 km/h (3 Bft) 100,00 %
07.03.2023 01:46 4,1 C 3,3 C 0,0 C 95 % 999,9 hPa 0,0 l/m 0 min 2 min 0 W/m 16,1 km/h (3 Bft) 97,87 %
07.03.2023 01:48 4,2 C 3,3 C 0,0 C 95 % 999,8 hPa 0,0 l/m 0 min 2 min 0 W/m 16,1 km/h (3 Bft) 95,74 %
07.03.2023 01:50 4,2 C 3,3 C 0,0 C 95 % 999,8 hPa 0,0 l/m 0 min 2 min 0 W/m 12,9 km/h (3 Bft) 97,87 %
07.03.2023 01:52 4,2 C 3,3 C 0,0 C 95 % 999,8 hPa 0,0 l/m 0 min 2 min 0 W/m 22,5 km/h (4 Bft) 97,83 %
07.03.2023 01:54 4,2 C 3,3 C 0,0 C 95 % 999,8 hPa 0,0 l/m 0 min 2 min 0 W/m 41,8 km/h (6 Bft) 97,92 %
07.03.2023 01:56 4,2 C 3,3 C 0,0 C 95 % 999,8 hPa 0,0 l/m 0 min 2 min 0 W/m 16,1 km/h (3 Bft) 97,87 %
07.03.2023 01:58 4,2 C 3,3 C 0,0 C 95 % 999,8 hPa 0,0 l/m 0 min 2 min 0 W/m 22,5 km/h (4 Bft) 97,67 %
07.03.2023 02:00 4,2 C 3,3 C 0,0 C 95 % 999,8 hPa 0,0 l/m 0 min 2 min 0 W/m 25,7 km/h (4 Bft) 95,74 %
07.03.2023 02:02 4,2 C 3,3 C 0,0 C 95 % 999,8 hPa 0,0 l/m 0 min 2 min 0 W/m 19,3 km/h (3 Bft) 95,74 %
07.03.2023 02:04 4,2 C 3,3 C 0,0 C 95 % 999,8 hPa 0,0 l/m 0 min 2 min 0 W/m 12,9 km/h (3 Bft) 94,44 %
07.03.2023 02:06 4,2 C 3,3 C 0,0 C 95 % 999,8 hPa 0,2 l/m 0 min 2 min 0 W/m 19,3 km/h (3 Bft) 98,28 %
07.03.2023 02:08 4,2 C 3,3 C 0,0 C 95 % 999,8 hPa 0,0 l/m 0 min 2 min 0 W/m 22,5 km/h (4 Bft) 97,14 %
07.03.2023 02:10 4,2 C 3,3 C 0,0 C 95 % 999,7 hPa 0,0 l/m 0 min 2 min 0 W/m 29,0 km/h (5 Bft) 97,87 %
07.03.2023 02:14 4,2 C 3,3 C 0,0 C 95 % 999,8 hPa 0,0 l/m 0 min 4 min 0 W/m 19,3 km/h (3 Bft) 100,00 %
07.03.2023 02:16 4,2 C 3,3 C 0,0 C 95 % 999,8 hPa 0,0 l/m 0 min 2 min 0 W/m 19,3 km/h (3 Bft) 100,00 %
07.03.2023 02:18 4,3 C 3,3 C 0,0 C 96 % 999,9 hPa 0,0 l/m 0 min 2 min 0 W/m 25,7 km/h (4 Bft) 97,87 %
07.03.2023 02:20 4,3 C 3,3 C 0,0 C 96 % 999,8 hPa 0,0 l/m 0 min 2 min 0 W/m 29,0 km/h (5 Bft) 95,74 %
07.03.2023 02:22 4,3 C 3,9 C 0,0 C 96 % 999,8 hPa 0,0 l/m 0 min 2 min 0 W/m 22,5 km/h (4 Bft) 100,00 %
07.03.2023 02:24 4,3 C 3,3 C 0,0 C 96 % 999,6 hPa 0,0 l/m 0 min 2 min 0 W/m 19,3 km/h (3 Bft) 100,00 %
07.03.2023 02:26 4,3 C 3,3 C 0,0 C 96 % 999,7 hPa 0,2 l/m 0 min 2 min 0 W/m 16,1 km/h (3 Bft) 95,74 %
07.03.2023 02:28 4,3 C 3,3 C 0,0 C 96 % 999,7 hPa 0,0 l/m 0 min 2 min 0 W/m 22,5 km/h (4 Bft) 100,00 %
07.03.2023 02:30 4,3 C 3,3 C 0,0 C 96 % 999,7 hPa 0,0 l/m 0 min 2 min 0 W/m 25,7 km/h (4 Bft) 100,00 %
07.03.2023 02:32 4,3 C 3,3 C 0,0 C 96 % 999,6 hPa 0,0 l/m 0 min 2 min 0 W/m 16,1 km/h (3 Bft) 100,00 %
07.03.2023 02:34 4,3 C 3,3 C 0,0 C 96 % 999,8 hPa 0,0 l/m 0 min 2 min 0 W/m 16,1 km/h (3 Bft) 100,00 %
07.03.2023 02:36 4,3 C 3,3 C 0,0 C 96 % 999,6 hPa 0,0 l/m 0 min 2 min 0 W/m 12,9 km/h (3 Bft) 97,87 %
07.03.2023 02:38 4,3 C 3,3 C 0,6 C 96 % 999,6 hPa 0,0 l/m 0 min 2 min 0 W/m 16,1 km/h (3 Bft) 68,09 %
07.03.2023 02:40 4,3 C 3,3 C 0,6 C 96 % 999,7 hPa 0,0 l/m 0 min 2 min 0 W/m 16,1 km/h (3 Bft) 89,36 %
07.03.2023 02:42 4,2 C 3,3 C 0,6 C 95 % 999,7 hPa 0,0 l/m 0 min 2 min 0 W/m 16,1 km/h (3 Bft) 100,00 %
07.03.2023 02:44 4,2 C 3,3 C 0,0 C 95 % 999,7 hPa 0,0 l/m 0 min 2 min 0 W/m 22,5 km/h (4 Bft) 100,00 %
07.03.2023 02:46 4,2 C 3,3 C 0,0 C 95 % 999,6 hPa 0,0 l/m 0 min 2 min 0 W/m 19,3 km/h (3 Bft) 100,00 %
07.03.2023 02:48 4,2 C 3,3 C 0,0 C 95 % 999,6 hPa 0,2 l/m 0 min 2 min 0 W/m 16,1 km/h (3 Bft) 100,00 %
07.03.2023 02:50 4,2 C 3,3 C 0,0 C 95 % 999,6 hPa 0,0 l/m 0 min 2 min 0 W/m 16,1 km/h (3 Bft) 97,87 %
07.03.2023 02:52 4,2 C 3,3 C 0,0 C 95 % 999,5 hPa 0,0 l/m 0 min 2 min 0 W/m 16,1 km/h (3 Bft) 100,00 %
07.03.2023 02:54 4,2 C 3,3 C 0,0 C 95 % 999,4 hPa 0,0 l/m 0 min 2 min 0 W/m 16,1 km/h (3 Bft) 100,00 %
07.03.2023 02:56 4,1 C 3,3 C 0,0 C 95 % 999,5 hPa 0,0 l/m 0 min 2 min 0 W/m 16,1 km/h (3 Bft) 100,00 %
07.03.2023 02:58 4,1 C 3,3 C 0,0 C 95 % 999,5 hPa 0,0 l/m 0 min 2 min 0 W/m 19,3 km/h (3 Bft) 100,00 %
07.03.2023 03:00 4,1 C 3,3 C 0,0 C 95 % 999,4 hPa 0,2 l/m 0 min 2 min 0 W/m 22,5 km/h (4 Bft) 97,87 %
07.03.2023 03:02 4,1 C 3,3 C 0,0 C 95 % 999,3 hPa 0,0 l/m 0 min 2 min 0 W/m 12,9 km/h (3 Bft) 97,87 %
07.03.2023 03:04 4,1 C 3,3 C 0,0 C 96 % 999,4 hPa 0,0 l/m 0 min 2 min 0 W/m 22,5 km/h (4 Bft) 97,87 %
07.03.2023 03:06 4,1 C 3,3 C 0,0 C 96 % 999,4 hPa 0,0 l/m 0 min 2 min 0 W/m 16,1 km/h (3 Bft) 97,83 %
07.03.2023 03:08 4,1 C 3,3 C 0,0 C 96 % 999,3 hPa 0,0 l/m 0 min 2 min 0 W/m 12,9 km/h (3 Bft) 95,74 %
07.03.2023 03:10 4,1 C 3,3 C 0,0 C 96 % 999,3 hPa 0,0 l/m 0 min 2 min 0 W/m 16,1 km/h (3 Bft) 97,87 %
07.03.2023 03:12 4,1 C 3,3 C 0,0 C 96 % 999,3 hPa 0,0 l/m 0 min 2 min 0 W/m 19,3 km/h (3 Bft) 95,74 %
07.03.2023 03:14 4,1 C 3,3 C 0,0 C 96 % 999,3 hPa 0,0 l/m 0 min 2 min 0 W/m 19,3 km/h (3 Bft) 97,87 %
07.03.2023 03:16 4,1 C 3,3 C 0,0 C 96 % 999,2 hPa 0,0 l/m 0 min 2 min 0 W/m 22,5 km/h (4 Bft) 97,87 %
07.03.2023 03:18 4,1 C 3,3 C 0,0 C 96 % 999,2 hPa 0,2 l/m 0 min 2 min 0 W/m 12,9 km/h (3 Bft) 97,87 %
07.03.2023 03:20 4,1 C 3,3 C 0,0 C 96 % 999,2 hPa 0,0 l/m 0 min 2 min 0 W/m 12,9 km/h (3 Bft) 95,65 %
07.03.2023 03:22 4,1 C 3,3 C 0,0 C 96 % 999,1 hPa 0,0 l/m 0 min 2 min 0 W/m 22,5 km/h (4 Bft) 95,74 %
07.03.2023 03:24 4,1 C 3,3 C 0,0 C 96 % 999,1 hPa 0,0 l/m 0 min 2 min 0 W/m 9,7 km/h (2 Bft) 93,62 %
07.03.2023 03:26 4,1 C 3,3 C 0,0 C 96 % 999,1 hPa 0,0 l/m 0 min 2 min 0 W/m 6,4 km/h (2 Bft) 95,74 %
07.03.2023 03:28 4,1 C 3,3 C 0,0 C 96 % 999,0 hPa 0,0 l/m 0 min 2 min 0 W/m 16,1 km/h (3 Bft) 91,49 %
07.03.2023 03:30 4,1 C 3,3 C 0,0 C 96 % 999,0 hPa 0,2 l/m 0 min 2 min 0 W/m 12,9 km/h (3 Bft) 95,74 %
07.03.2023 03:32 4,1 C 3,3 C 0,0 C 96 % 999,1 hPa 0,0 l/m 0 min 2 min 0 W/m 16,1 km/h (3 Bft) 93,62 %
07.03.2023 03:34 4,1 C 3,3 C 0,0 C 96 % 999,0 hPa 0,0 l/m 0 min 2 min 0 W/m 12,9 km/h (3 Bft) 95,65 %
07.03.2023 03:36 4,1 C 3,3 C 0,0 C 96 % 999,0 hPa 0,0 l/m 0 min 2 min 0 W/m 12,9 km/h (3 Bft) 93,62 %
07.03.2023 03:38 4,1 C 3,3 C 0,0 C 96 % 999,0 hPa 0,0 l/m 0 min 2 min 0 W/m 16,1 km/h (3 Bft) 91,49 %
07.03.2023 03:40 4,1 C 3,3 C 0,0 C 96 % 998,9 hPa 0,0 l/m 0 min 2 min 0 W/m 16,1 km/h (3 Bft) 93,62 %
07.03.2023 03:42 4,1 C 3,3 C 0,0 C 96 % 999,0 hPa 0,0 l/m 0 min 2 min 0 W/m 16,1 km/h (3 Bft) 93,62 %
07.03.2023 03:44 4,1 C 3,3 C 0,0 C 96 % 999,0 hPa 0,2 l/m 0 min 2 min 0 W/m 16,1 km/h (3 Bft) 95,74 %
07.03.2023 03:46 4,1 C 3,3 C 0,6 C 96 % 998,9 hPa 0,0 l/m 0 min 2 min 0 W/m 6,4 km/h (2 Bft) 93,62 %
07.03.2023 03:48 4,1 C 3,3 C 0,0 C 96 % 998,8 hPa 0,0 l/m 0 min 2 min 0 W/m 19,3 km/h (3 Bft) 94,23 %
07.03.2023 03:50 4,1 C 3,3 C 0,0 C 96 % 998,8 hPa 0,0 l/m 0 min 2 min 0 W/m 12,9 km/h (3 Bft) 94,74 %
07.03.2023 03:52 4,1 C 3,3 C 0,0 C 96 % 998,9 hPa 0,0 l/m 0 min 2 min 0 W/m 12,9 km/h (3 Bft) 96,00 %
07.03.2023 03:54 4,1 C 3,3 C 0,0 C 96 % 998,8 hPa 0,0 l/m 0 min 0 min 0 W/m 9,7 km/h (2 Bft) 93,62 %
07.03.2023 03:56 4,1 C 3,3 C 0,0 C 96 % 998,8 hPa 0,0 l/m 0 min 0 min 0 W/m 12,9 km/h (3 Bft) 95,74 %
07.03.2023 03:58 4,1 C 3,3 C 0,0 C 96 % 998,7 hPa 0,0 l/m 0 min 0 min 0 W/m 16,1 km/h (3 Bft) 95,74 %
07.03.2023 04:00 4,1 C 3,3 C 0,0 C 96 % 998,8 hPa 0,0 l/m 0 min 0 min 0 W/m 12,9 km/h (3 Bft) 93,48 %
07.03.2023 04:02 4,1 C 3,3 C 0,0 C 96 % 998,8 hPa 0,0 l/m 0 min 0 min 0 W/m 16,1 km/h (3 Bft) 97,87 %
07.03.2023 04:04 4,1 C 3,3 C 0,0 C 96 % 998,8 hPa 0,0 l/m 0 min 0 min 0 W/m 16,1 km/h (3 Bft) 93,62 %
07.03.2023 04:06 4,1 C 3,3 C 0,0 C 96 % 998,7 hPa 0,0 l/m 0 min 2 min 0 W/m 22,5 km/h (4 Bft) 94,34 %
07.03.2023 04:08 4,1 C 3,3 C 0,0 C 96 % 998,8 hPa 0,0 l/m 0 min 2 min 0 W/m 16,1 km/h (3 Bft) 95,74 %
07.03.2023 04:10 4,1 C 3,3 C 0,0 C 96 % 998,8 hPa 0,0 l/m 0 min 2 min 0 W/m 35,4 km/h (5 Bft) 93,62 %
07.03.2023 04:12 4,1 C 3,3 C 0,0 C 96 % 998,8 hPa 0,0 l/m 0 min 2 min 0 W/m 12,9 km/h (3 Bft) 97,87 %
07.03.2023 04:14 4,1 C 3,3 C 0,0 C 96 % 998,7 hPa 0,0 l/m 0 min 2 min 0 W/m 19,3 km/h (3 Bft) 100,00 %
07.03.2023 04:16 4,1 C 3,3 C 0,0 C 96 % 998,8 hPa 0,2 l/m 0 min 2 min 0 W/m 19,3 km/h (3 Bft) 100,00 %
07.03.2023 04:18 4,1 C 3,3 C 0,0 C 96 % 998,8 hPa 0,0 l/m 0 min 2 min 0 W/m 16,1 km/h (3 Bft) 97,87 %
07.03.2023 04:20 4,0 C 3,3 C 0,0 C 96 % 998,7 hPa 0,0 l/m 0 min 2 min 0 W/m 22,5 km/h (4 Bft) 100,00 %
07.03.2023 04:22 4,0 C 3,3 C 0,0 C 96 % 998,7 hPa 0,0 l/m 0 min 2 min 0 W/m 12,9 km/h (3 Bft) 97,87 %
07.03.2023 04:24 4,0 C 3,3 C 0,0 C 96 % 998,7 hPa 0,0 l/m 0 min 2 min 0 W/m 16,1 km/h (3 Bft) 100,00 %
07.03.2023 04:26 4,0 C 3,3 C 0,0 C 96 % 998,8 hPa 0,0 l/m 0 min 2 min 0 W/m 12,9 km/h (3 Bft) 100,00 %
07.03.2023 04:28 4,0 C 3,3 C 0,0 C 96 % 998,7 hPa 0,0 l/m 0 min 2 min 0 W/m 16,1 km/h (3 Bft) 97,87 %
07.03.2023 04:30 4,0 C 3,3 C 0,0 C 96 % 998,6 hPa 0,0 l/m 0 min 2 min 0 W/m 6,4 km/h (2 Bft) 97,83 %
07.03.2023 04:32 4,0 C 3,3 C 0,0 C 96 % 998,7 hPa 0,0 l/m 0 min 2 min 0 W/m 6,4 km/h (2 Bft) 97,87 %
07.03.2023 04:34 4,0 C 3,3 C 0,0 C 96 % 998,7 hPa 0,0 l/m 0 min 2 min 0 W/m 9,7 km/h (2 Bft) 100,00 %
07.03.2023 04:36 4,0 C 3,3 C 0,6 C 96 % 998,6 hPa 0,0 l/m 0 min 2 min 0 W/m 12,9 km/h (3 Bft) 97,87 %
07.03.2023 04:38 4,0 C 3,3 C 0,6 C 96 % 998,6 hPa 0,2 l/m 0 min 2 min 0 W/m 6,4 km/h (2 Bft) 100,00 %
07.03.2023 04:40 4,0 C 3,3 C 0,0 C 96 % 998,6 hPa 0,0 l/m 0 min 2 min 0 W/m 12,9 km/h (3 Bft) 100,00 %
07.03.2023 04:42 4,0 C 3,3 C 0,6 C 96 % 998,6 hPa 0,0 l/m 0 min 2 min 0 W/m 9,7 km/h (2 Bft) 97,83 %
07.03.2023 04:44 4,0 C 3,3 C 0,0 C 96 % 998,5 hPa 0,0 l/m 0 min 2 min 0 W/m 12,9 km/h (3 Bft) 100,00 %
07.03.2023 04:46 4,0 C 3,3 C 0,6 C 96 % 998,5 hPa 0,0 l/m 0 min 2 min 0 W/m 16,1 km/h (3 Bft) 97,87 %
07.03.2023 04:48 4,0 C 3,3 C 0,6 C 96 % 998,5 hPa 0,0 l/m 0 min 0 min 0 W/m 22,5 km/h (4 Bft) 100,00 %
07.03.2023 04:50 4,0 C 3,3 C 0,0 C 96 % 998,5 hPa 0,0 l/m 0 min 2 min 0 W/m 29,0 km/h (5 Bft) 97,87 %
07.03.2023 04:52 4,0 C 3,3 C 0,0 C 96 % 998,4 hPa 0,0 l/m 0 min 2 min 0 W/m 25,7 km/h (4 Bft) 100,00 %
07.03.2023 04:54 4,0 C 3,3 C 0,0 C 96 % 998,4 hPa 0,0 l/m 0 min 2 min 0 W/m 12,9 km/h (3 Bft) 100,00 %
07.03.2023 04:56 4,0 C 3,3 C 0,0 C 96 % 998,4 hPa 0,0 l/m 0 min 2 min 0 W/m 19,3 km/h (3 Bft) 97,83 %
07.03.2023 04:58 4,0 C 3,3 C 0,0 C 96 % 998,4 hPa 0,0 l/m 0 min 2 min 0 W/m 22,5 km/h (4 Bft) 100,00 %
07.03.2023 05:00 4,0 C 3,3 C 0,0 C 96 % 998,3 hPa 0,0 l/m 0 min 2 min 0 W/m 25,7 km/h (4 Bft) 100,00 %
07.03.2023 05:02 4,0 C 3,3 C 0,0 C 96 % 998,3 hPa 0,0 l/m 0 min 0 min 0 W/m 22,5 km/h (4 Bft) 100,00 %
07.03.2023 05:04 4,0 C 3,3 C 0,0 C 96 % 998,2 hPa 0,0 l/m 0 min 2 min 0 W/m 38,6 km/h (5 Bft) 100,00 %
07.03.2023 05:06 4,0 C 3,3 C 0,0 C 96 % 998,2 hPa 0,0 l/m 0 min 2 min 0 W/m 16,1 km/h (3 Bft) 100,00 %
07.03.2023 05:08 4,0 C 3,3 C 0,0 C 96 % 998,2 hPa 0,0 l/m 0 min 0 min 0 W/m 19,3 km/h (3 Bft) 100,00 %
07.03.2023 05:10 3,9 C 3,3 C 0,0 C 96 % 998,2 hPa 0,0 l/m 0 min 0 min 0 W/m 22,5 km/h (4 Bft) 97,83 %
07.03.2023 05:12 3,9 C 3,3 C 0,0 C 96 % 998,1 hPa 0,0 l/m 0 min 0 min 0 W/m 25,7 km/h (4 Bft) 100,00 %
07.03.2023 05:14 3,9 C 3,3 C 0,0 C 96 % 998,1 hPa 0,0 l/m 0 min 0 min 0 W/m 19,3 km/h (3 Bft) 100,00 %
07.03.2023 05:16 3,9 C 3,3 C 0,0 C 96 % 998,2 hPa 0,0 l/m 0 min 0 min 0 W/m 19,3 km/h (3 Bft) 97,87 %
07.03.2023 05:18 3,9 C 3,3 C 0,0 C 96 % 998,1 hPa 0,0 l/m 0 min 0 min 0 W/m 19,3 km/h (3 Bft) 97,92 %
07.03.2023 05:20 3,9 C 3,3 C 0,0 C 96 % 998,1 hPa 0,0 l/m 0 min 2 min 0 W/m 22,5 km/h (4 Bft) 97,87 %
07.03.2023 05:22 3,9 C 3,3 C 0,0 C 96 % 998,0 hPa 0,0 l/m 0 min 2 min 0 W/m 29,0 km/h (5 Bft) 97,87 %
07.03.2023 05:24 3,9 C 3,3 C 0,0 C 96 % 997,9 hPa 0,0 l/m 0 min 2 min 0 W/m 16,1 km/h (3 Bft) 100,00 %
07.03.2023 05:26 3,9 C 3,3 C 0,0 C 96 % 998,0 hPa 0,0 l/m 0 min 2 min 0 W/m 22,5 km/h (4 Bft) 97,96 %
07.03.2023 05:28 3,9 C 3,3 C 0,0 C 96 % 997,9 hPa 0,2 l/m 0 min 2 min 0 W/m 12,9 km/h (3 Bft) 97,92 %
07.03.2023 05:30 3,9 C 3,3 C 0,0 C 96 % 998,0 hPa 0,0 l/m 0 min 0 min 0 W/m 16,1 km/h (3 Bft) 97,87 %
07.03.2023 05:32 3,9 C 3,3 C 0,0 C 96 % 997,9 hPa 0,0 l/m 0 min 2 min 0 W/m 25,7 km/h (4 Bft) 97,87 %
07.03.2023 05:34 3,9 C 3,3 C 0,0 C 96 % 997,9 hPa 0,0 l/m 0 min 2 min 0 W/m 16,1 km/h (3 Bft) 93,62 %
07.03.2023 05:36 3,9 C 3,3 C 0,0 C 96 % 998,0 hPa 0,0 l/m 0 min 0 min 0 W/m 19,3 km/h (3 Bft) 95,74 %
07.03.2023 05:38 3,9 C 3,3 C 0,0 C 96 % 997,9 hPa 0,0 l/m 0 min 0 min 0 W/m 25,7 km/h (4 Bft) 93,48 %
07.03.2023 05:40 3,9 C 3,3 C 0,0 C 96 % 997,9 hPa 0,0 l/m 0 min 2 min 0 W/m 19,3 km/h (3 Bft) 93,62 %
07.03.2023 05:42 3,9 C 3,3 C 0,0 C 96 % 997,8 hPa 0,0 l/m 0 min 0 min 0 W/m 22,5 km/h (4 Bft) 95,74 %
07.03.2023 05:44 3,9 C 3,3 C 0,0 C 96 % 997,8 hPa 0,0 l/m 0 min 2 min 0 W/m 25,7 km/h (4 Bft) 95,74 %
07.03.2023 05:46 3,9 C 3,3 C 0,0 C 96 % 997,8 hPa 0,0 l/m 0 min 2 min 0 W/m 16,1 km/h (3 Bft) 97,87 %
07.03.2023 05:48 3,9 C 3,3 C 0,0 C 96 % 997,8 hPa 0,0 l/m 0 min 0 min 0 W/m 16,1 km/h (3 Bft) 95,74 %
07.03.2023 05:50 3,9 C 3,3 C 0,0 C 96 % 997,8 hPa 0,0 l/m 0 min 2 min 0 W/m 16,1 km/h (3 Bft) 95,65 %
07.03.2023 05:52 3,9 C 3,3 C 0,0 C 96 % 997,7 hPa 0,0 l/m 0 min 2 min 0 W/m 16,1 km/h (3 Bft) 94,44 %
07.03.2023 05:54 3,9 C 3,3 C 0,0 C 96 % 997,8 hPa 0,0 l/m 0 min 0 min 0 W/m 16,1 km/h (3 Bft) 93,48 %
07.03.2023 05:56 3,9 C 3,3 C 0,0 C 96 % 997,7 hPa 0,0 l/m 0 min 0 min 0 W/m 12,9 km/h (3 Bft) 95,83 %
07.03.2023 05:58 3,9 C 3,3 C 0,0 C 96 % 997,7 hPa 0,0 l/m 0 min 0 min 0 W/m 19,3 km/h (3 Bft) 95,74 %
07.03.2023 06:00 3,9 C 3,3 C 0,0 C 96 % 997,7 hPa 0,0 l/m 0 min 2 min 0 W/m 19,3 km/h (3 Bft) 93,62 %
07.03.2023 06:02 3,9 C 3,3 C 0,0 C 96 % 997,7 hPa 0,0 l/m 0 min 2 min 0 W/m 19,3 km/h (3 Bft) 96,30 %
07.03.2023 06:04 3,9 C 3,3 C 0,0 C 96 % 997,6 hPa 0,0 l/m 0 min 2 min 0 W/m 19,3 km/h (3 Bft) 97,83 %
07.03.2023 06:08 3,8 C 3,3 C 0,0 C 96 % 997,6 hPa 0,0 l/m 0 min 4 min 0 W/m 35,4 km/h (5 Bft) 95,79 %
07.03.2023 06:10 3,9 C 3,3 C 0,0 C 96 % 997,6 hPa 0,0 l/m 0 min 2 min 0 W/m 29,0 km/h (5 Bft) 97,87 %
07.03.2023 06:12 3,8 C 3,3 C 0,0 C 96 % 997,6 hPa 0,0 l/m 0 min 2 min 0 W/m 22,5 km/h (4 Bft) 95,83 %
07.03.2023 06:14 3,8 C 3,3 C 0,0 C 96 % 997,5 hPa 0,0 l/m 0 min 2 min 0 W/m 12,9 km/h (3 Bft) 97,87 %
07.03.2023 06:16 3,8 C 3,3 C 0,0 C 96 % 997,5 hPa 0,0 l/m 0 min 2 min 0 W/m 22,5 km/h (4 Bft) 100,00 %
07.03.2023 06:18 3,8 C 3,3 C 0,0 C 96 % 997,6 hPa 0,0 l/m 0 min 2 min 0 W/m 16,1 km/h (3 Bft) 100,00 %
07.03.2023 06:20 3,8 C 3,3 C 0,0 C 96 % 997,5 hPa 0,0 l/m 0 min 0 min 0 W/m 19,3 km/h (3 Bft) 100,00 %
07.03.2023 06:22 3,8 C 3,3 C 0,0 C 96 % 997,6 hPa 0,0 l/m 0 min 0 min 0 W/m 19,3 km/h (3 Bft) 100,00 %
07.03.2023 06:24 3,8 C 3,3 C 0,0 C 96 % 997,5 hPa 0,0 l/m 0 min 0 min 0 W/m 16,1 km/h (3 Bft) 100,00 %
07.03.2023 06:26 3,8 C 3,3 C 0,0 C 96 % 997,5 hPa 0,0 l/m 0 min 0 min 0 W/m 22,5 km/h (4 Bft) 100,00 %
07.03.2023 06:28 3,8 C 3,3 C 0,0 C 96 % 997,5 hPa 0,0 l/m 0 min 0 min 0 W/m 19,3 km/h (3 Bft) 97,87 %
07.03.2023 06:30 3,8 C 3,3 C 0,0 C 96 % 997,5 hPa 0,0 l/m 0 min 0 min 0 W/m 19,3 km/h (3 Bft) 97,83 %
07.03.2023 06:32 3,8 C 3,3 C 0,0 C 96 % 997,5 hPa 0,0 l/m 0 min 0 min 0 W/m 12,9 km/h (3 Bft) 97,87 %
07.03.2023 06:34 3,8 C 3,3 C 0,0 C 96 % 997,4 hPa 0,0 l/m 0 min 2 min 0 W/m 25,7 km/h (4 Bft) 97,87 %
07.03.2023 06:36 3,8 C 3,3 C 0,0 C 96 % 997,4 hPa 0,0 l/m 0 min 2 min 0 W/m 25,7 km/h (4 Bft) 95,74 %
07.03.2023 06:38 3,8 C 3,3 C 0,0 C 96 % 997,4 hPa 0,0 l/m 0 min 2 min 0 W/m 22,5 km/h (4 Bft) 95,74 %
07.03.2023 06:40 3,8 C 3,3 C 0,0 C 96 % 997,4 hPa 0,2 l/m 0 min 0 min 0 W/m 22,5 km/h (4 Bft) 95,74 %
07.03.2023 06:42 3,8 C 3,3 C 0,0 C 96 % 997,5 hPa 0,0 l/m 0 min 0 min 0 W/m 16,1 km/h (3 Bft) 97,87 %
07.03.2023 06:44 3,8 C 3,3 C 0,0 C 96 % 997,4 hPa 0,0 l/m 0 min 2 min 0 W/m 19,3 km/h (3 Bft) 97,83 %
07.03.2023 06:46 3,8 C 3,3 C 0,0 C 96 % 997,3 hPa 0,0 l/m 0 min 2 min 0 W/m 29,0 km/h (5 Bft) 97,87 %
07.03.2023 06:48 3,8 C 3,3 C 0,0 C 96 % 997,4 hPa 0,0 l/m 0 min 0 min 0 W/m 22,5 km/h (4 Bft) 97,87 %
07.03.2023 06:50 3,8 C 3,3 C 0,0 C 96 % 997,4 hPa 0,0 l/m 0 min 0 min 0 W/m 25,7 km/h (4 Bft) 95,74 %
07.03.2023 06:52 3,8 C 3,3 C 0,0 C 96 % 997,4 hPa 0,0 l/m 0 min 2 min 0 W/m 16,1 km/h (3 Bft) 97,87 %
07.03.2023 06:54 3,9 C 3,3 C 0,0 C 96 % 997,3 hPa 0,0 l/m 0 min 2 min 0 W/m 29,0 km/h (5 Bft) 95,74 %
07.03.2023 06:56 3,8 C 3,3 C 0,0 C 96 % 997,4 hPa 0,0 l/m 0 min 2 min 0 W/m 25,7 km/h (4 Bft) 95,74 %
07.03.2023 06:58 3,8 C 3,3 C 0,0 C 96 % 997,3 hPa 0,0 l/m 0 min 2 min 0 W/m 16,1 km/h (3 Bft) 97,83 %
07.03.2023 07:00 3,9 C 3,3 C 0,0 C 96 % 997,3 hPa 0,0 l/m 0 min 2 min 0 W/m 19,3 km/h (3 Bft) 97,87 %
07.03.2023 07:02 3,9 C 3,3 C 0,0 C 96 % 997,2 hPa 0,0 l/m 0 min 0 min 0 W/m 16,1 km/h (3 Bft) 97,87 %
07.03.2023 07:04 3,9 C 3,3 C 0,0 C 96 % 997,3 hPa 0,0 l/m 0 min 0 min 0 W/m 6,4 km/h (2 Bft) 97,87 %
07.03.2023 07:06 3,9 C 3,3 C 0,0 C 96 % 997,2 hPa 0,0 l/m 0 min 0 min 0 W/m 22,5 km/h (4 Bft) 97,87 %
07.03.2023 07:08 3,9 C 3,3 C 0,0 C 96 % 997,2 hPa 0,0 l/m 0 min 0 min 0 W/m 12,9 km/h (3 Bft) 97,92 %
07.03.2023 07:10 3,9 C 3,3 C 0,0 C 96 % 997,2 hPa 0,0 l/m 0 min 0 min 0 W/m 19,3 km/h (3 Bft) 97,87 %
07.03.2023 07:12 3,9 C 3,3 C 0,0 C 96 % 997,2 hPa 0,0 l/m 0 min 0 min 0 W/m 19,3 km/h (3 Bft) 93,48 %
07.03.2023 07:14 3,9 C 3,3 C 0,0 C 96 % 997,1 hPa 0,0 l/m 0 min 0 min 0 W/m 25,7 km/h (4 Bft) 93,62 %
07.03.2023 07:16 3,9 C 3,3 C 0,0 C 96 % 997,1 hPa 0,0 l/m 0 min 0 min 0 W/m 19,3 km/h (3 Bft) 97,87 %
07.03.2023 07:18 3,9 C 3,3 C 0,0 C 96 % 997,2 hPa 0,0 l/m 0 min 0 min 0 W/m 16,1 km/h (3 Bft) 97,87 %
07.03.2023 07:20 3,9 C 3,3 C 0,6 C 96 % 997,1 hPa 0,0 l/m 0 min 0 min 0 W/m 29,0 km/h (5 Bft) 100,00 %
07.03.2023 07:22 4,0 C 3,3 C 0,6 C 96 % 997,1 hPa 0,0 l/m 0 min 0 min 2 W/m 19,3 km/h (3 Bft) 95,74 %
07.03.2023 07:24 4,0 C 3,3 C 0,6 C 96 % 997,2 hPa 0,0 l/m 0 min 0 min 0 W/m 25,7 km/h (4 Bft) 97,83 %
07.03.2023 07:26 4,0 C 3,3 C 0,6 C 96 % 997,1 hPa 0,0 l/m 0 min 0 min 0 W/m 19,3 km/h (3 Bft) 95,74 %
07.03.2023 07:28 4,0 C 3,3 C 0,6 C 96 % 997,1 hPa 0,0 l/m 0 min 0 min 0 W/m 22,5 km/h (4 Bft) 93,62 %
07.03.2023 07:30 4,1 C 3,3 C 0,6 C 96 % 997,1 hPa 0,0 l/m 0 min 0 min 0 W/m 22,5 km/h (4 Bft) 97,87 %
07.03.2023 07:32 4,1 C 3,3 C 0,6 C 96 % 997,0 hPa 0,0 l/m 0 min 0 min 5 W/m 41,8 km/h (6 Bft) 82,98 %
07.03.2023 07:34 4,1 C 3,3 C 0,6 C 96 % 997,1 hPa 0,0 l/m 0 min 0 min 5 W/m 12,9 km/h (3 Bft) 63,89 %
07.03.2023 07:36 4,1 C 3,3 C 0,6 C 96 % 997,0 hPa 0,0 l/m 0 min 2 min 5 W/m 19,3 km/h (3 Bft) 95,74 %
07.03.2023 07:38 4,1 C 3,3 C 0,6 C 96 % 997,0 hPa 0,0 l/m 0 min 2 min 5 W/m 35,4 km/h (5 Bft) 97,83 %
07.03.2023 07:40 4,1 C 3,3 C 0,6 C 96 % 997,1 hPa 0,0 l/m 0 min 2 min 7 W/m 35,4 km/h (5 Bft) 97,87 %
07.03.2023 07:42 4,1 C 3,3 C 0,6 C 96 % 997,0 hPa 0,0 l/m 0 min 2 min 7 W/m 12,9 km/h (3 Bft) 97,87 %
07.03.2023 07:44 4,1 C 3,3 C 0,6 C 96 % 997,0 hPa 0,0 l/m 0 min 2 min 7 W/m 25,7 km/h (4 Bft) 93,62 %
07.03.2023 07:46 4,1 C 3,3 C 0,6 C 96 % 997,0 hPa 0,0 l/m 0 min 2 min 9 W/m 12,9 km/h (3 Bft) 97,87 %
07.03.2023 07:48 4,1 C 3,3 C 0,6 C 96 % 997,0 hPa 0,0 l/m 0 min 2 min 10 W/m 19,3 km/h (3 Bft) 95,74 %
07.03.2023 07:50 4,1 C 3,3 C 0,6 C 96 % 997,1 hPa 0,0 l/m 0 min 0 min 13 W/m 29,0 km/h (5 Bft) 95,65 %
07.03.2023 07:52 4,1 C 3,3 C 0,6 C 96 % 996,9 hPa 0,0 l/m 0 min 2 min 14 W/m 25,7 km/h (4 Bft) 95,74 %
07.03.2023 07:54 4,1 C 3,3 C 0,6 C 95 % 996,9 hPa 0,0 l/m 0 min 2 min 16 W/m 16,1 km/h (3 Bft) 97,87 %
07.03.2023 07:56 4,1 C 3,3 C 0,6 C 95 % 996,9 hPa 0,0 l/m 0 min 2 min 15 W/m 25,7 km/h (4 Bft) 100,00 %
07.03.2023 07:58 4,1 C 3,3 C 0,6 C 95 % 996,9 hPa 0,0 l/m 0 min 0 min 15 W/m 32,2 km/h (5 Bft) 100,00 %
07.03.2023 08:00 4,1 C 3,3 C 0,6 C 95 % 996,9 hPa 0,0 l/m 0 min 2 min 12 W/m 19,3 km/h (3 Bft) 97,87 %
07.03.2023 08:02 4,1 C 3,3 C 0,6 C 95 % 996,9 hPa 0,0 l/m 0 min 2 min 12 W/m 19,3 km/h (3 Bft) 93,62 %
07.03.2023 08:04 4,1 C 3,3 C 0,6 C 95 % 996,9 hPa 0,0 l/m 0 min 2 min 14 W/m 22,5 km/h (4 Bft) 93,62 %
07.03.2023 08:06 4,1 C 3,3 C 0,6 C 95 % 996,9 hPa 0,2 l/m 0 min 2 min 13 W/m 16,1 km/h (3 Bft) 93,48 %
07.03.2023 08:08 4,1 C 3,3 C 0,6 C 95 % 996,8 hPa 0,0 l/m 0 min 2 min 13 W/m 19,3 km/h (3 Bft) 97,87 %
07.03.2023 08:10 4,2 C 3,3 C 0,6 C 95 % 996,8 hPa 0,0 l/m 0 min 2 min 17 W/m 16,1 km/h (3 Bft) 97,87 %
07.03.2023 08:12 4,2 C 3,3 C 0,6 C 95 % 996,8 hPa 0,0 l/m 0 min 2 min 16 W/m 19,3 km/h (3 Bft) 97,87 %
07.03.2023 08:14 4,2 C 3,3 C 0,6 C 95 % 996,8 hPa 0,0 l/m 0 min 2 min 13 W/m 12,9 km/h (3 Bft) 95,74 %
07.03.2023 08:16 4,2 C 3,3 C 0,6 C 95 % 996,7 hPa 0,0 l/m 0 min 2 min 12 W/m 12,9 km/h (3 Bft) 97,87 %
07.03.2023 08:18 4,2 C 3,3 C 0,6 C 95 % 996,8 hPa 0,0 l/m 0 min 2 min 12 W/m 12,9 km/h (3 Bft) 97,83 %
07.03.2023 08:20 4,2 C 3,3 C 0,6 C 95 % 996,8 hPa 0,0 l/m 0 min 2 min 13 W/m 22,5 km/h (4 Bft) 95,74 %
07.03.2023 08:22 4,2 C 3,3 C 0,6 C 95 % 996,8 hPa 0,0 l/m 0 min 2 min 15 W/m 29,0 km/h (5 Bft) 97,87 %
07.03.2023 08:24 4,2 C 3,3 C 0,6 C 95 % 996,9 hPa 0,0 l/m 0 min 2 min 21 W/m 16,1 km/h (3 Bft) 97,87 %
07.03.2023 08:26 4,2 C 3,3 C 0,6 C 95 % 996,8 hPa 0,0 l/m 0 min 2 min 22 W/m 16,1 km/h (3 Bft) 97,87 %
07.03.2023 08:28 4,2 C 3,3 C 0,6 C 95 % 996,8 hPa 0,0 l/m 0 min 2 min 25 W/m 29,0 km/h (5 Bft) 97,87 %
07.03.2023 08:30 4,2 C 3,3 C 0,6 C 95 % 996,8 hPa 0,0 l/m 0 min 2 min 26 W/m 22,5 km/h (4 Bft) 97,87 %
07.03.2023 08:32 4,2 C 3,3 C 0,6 C 95 % 996,8 hPa 0,0 l/m 0 min 2 min 27 W/m 19,3 km/h (3 Bft) 50,00 %
07.03.2023 08:34 4,2 C 3,3 C 0,6 C 95 % 996,8 hPa 0,0 l/m 0 min 2 min 26 W/m 12,9 km/h (3 Bft) 97,87 %
07.03.2023 08:36 4,2 C 3,3 C 0,6 C 95 % 996,7 hPa 0,0 l/m 0 min 2 min 36 W/m 38,6 km/h (5 Bft) 97,87 %
07.03.2023 08:38 4,2 C 3,3 C 0,6 C 95 % 996,9 hPa 0,0 l/m 0 min 2 min 48 W/m 19,3 km/h (3 Bft) 95,74 %
07.03.2023 08:40 4,2 C 3,9 C 0,6 C 95 % 996,9 hPa 0,2 l/m 0 min 2 min 50 W/m 38,6 km/h (5 Bft) 97,87 %
07.03.2023 08:42 4,2 C 3,9 C 0,6 C 95 % 996,7 hPa 0,0 l/m 0 min 2 min 49 W/m 35,4 km/h (5 Bft) 97,87 %
07.03.2023 08:44 4,3 C 3,9 C 0,6 C 95 % 996,7 hPa 0,0 l/m 0 min 0 min 51 W/m 29,0 km/h (5 Bft) 97,87 %
07.03.2023 08:46 4,3 C 3,9 C 0,6 C 95 % 996,7 hPa 0,0 l/m 0 min 0 min 42 W/m 25,7 km/h (4 Bft) 100,00 %
07.03.2023 08:48 4,3 C 3,9 C 0,6 C 95 % 996,8 hPa 0,0 l/m 0 min 2 min 33 W/m 25,7 km/h (4 Bft) 100,00 %
07.03.2023 08:50 4,3 C 3,9 C 0,6 C 95 % 996,7 hPa 0,0 l/m 0 min 2 min 29 W/m 19,3 km/h (3 Bft) 100,00 %
07.03.2023 08:52 4,3 C 3,9 C 0,6 C 95 % 996,8 hPa 0,0 l/m 0 min 2 min 25 W/m 25,7 km/h (4 Bft) 100,00 %
07.03.2023 08:54 4,3 C 3,9 C 0,6 C 95 % 996,7 hPa 0,0 l/m 0 min 2 min 28 W/m 16,1 km/h (3 Bft) 97,87 %
07.03.2023 08:56 4,3 C 3,9 C 0,6 C 95 % 996,8 hPa 0,0 l/m 0 min 2 min 36 W/m 19,3 km/h (3 Bft) 95,74 %
07.03.2023 08:58 4,3 C 3,9 C 0,6 C 95 % 996,8 hPa 0,0 l/m 0 min 2 min 46 W/m 16,1 km/h (3 Bft) 97,83 %
07.03.2023 09:00 4,3 C 3,9 C 0,6 C 95 % 996,8 hPa 0,0 l/m 0 min 2 min 45 W/m 22,5 km/h (4 Bft) 100,00 %
07.03.2023 09:02 4,3 C 3,9 C 0,6 C 95 % 996,8 hPa 0,0 l/m 0 min 2 min 37 W/m 29,0 km/h (5 Bft) 100,00 %
07.03.2023 09:04 4,3 C 3,3 C 0,6 C 95 % 996,8 hPa 0,0 l/m 0 min 2 min 28 W/m 16,1 km/h (3 Bft) 97,87 %
07.03.2023 09:06 4,3 C 3,3 C 0,6 C 95 % 996,7 hPa 0,0 l/m 0 min 2 min 25 W/m 19,3 km/h (3 Bft) 100,00 %
07.03.2023 09:08 4,3 C 3,3 C 0,6 C 95 % 996,8 hPa 0,0 l/m 0 min 2 min 25 W/m 38,6 km/h (5 Bft) 97,87 %
07.03.2023 09:10 4,3 C 3,3 C 0,6 C 95 % 996,8 hPa 0,2 l/m 0 min 2 min 20 W/m 22,5 km/h (4 Bft) 100,00 %
07.03.2023 09:12 4,3 C 3,3 C 0,6 C 95 % 996,8 hPa 0,0 l/m 0 min 2 min 19 W/m 22,5 km/h (4 Bft) 97,87 %
07.03.2023 09:14 4,3 C 3,3 C 0,6 C 95 % 996,8 hPa 0,0 l/m 0 min 2 min 26 W/m 29,0 km/h (5 Bft) 97,87 %
07.03.2023 09:16 4,3 C 3,9 C 0,6 C 95 % 996,8 hPa 0,0 l/m 0 min 2 min 29 W/m 19,3 km/h (3 Bft) 97,87 %
07.03.2023 09:18 4,3 C 3,9 C 0,6 C 95 % 996,7 hPa 0,0 l/m 0 min 2 min 22 W/m 29,0 km/h (5 Bft) 97,87 %
07.03.2023 09:20 4,3 C 3,9 C 0,6 C 95 % 996,7 hPa 0,0 l/m 0 min 2 min 22 W/m 16,1 km/h (3 Bft) 97,87 %
07.03.2023 09:22 4,3 C 3,9 C 0,6 C 95 % 996,8 hPa 0,0 l/m 0 min 2 min 25 W/m 12,9 km/h (3 Bft) 97,87 %
07.03.2023 09:24 4,3 C 3,9 C 0,6 C 95 % 996,7 hPa 0,0 l/m 0 min 2 min 37 W/m 19,3 km/h (3 Bft) 97,83 %
07.03.2023 09:26 4,3 C 3,9 C 0,6 C 95 % 996,8 hPa 0,0 l/m 0 min 2 min 50 W/m 25,7 km/h (4 Bft) 95,74 %
07.03.2023 09:28 4,3 C 3,9 C 0,6 C 95 % 996,8 hPa 0,0 l/m 0 min 2 min 68 W/m 16,1 km/h (3 Bft) 97,87 %
07.03.2023 09:30 4,3 C 3,9 C 0,6 C 95 % 996,7 hPa 0,0 l/m 0 min 2 min 48 W/m 19,3 km/h (3 Bft) 95,74 %
07.03.2023 09:32 4,3 C 3,9 C 0,6 C 95 % 996,8 hPa 0,0 l/m 0 min 2 min 31 W/m 16,1 km/h (3 Bft) 91,49 %
07.03.2023 09:34 4,3 C 3,9 C 0,6 C 95 % 996,7 hPa 0,0 l/m 0 min 2 min 39 W/m 12,9 km/h (3 Bft) 95,74 %
07.03.2023 09:36 4,3 C 3,9 C 0,6 C 95 % 996,7 hPa 0,0 l/m 0 min 2 min 42 W/m 16,1 km/h (3 Bft) 93,62 %
07.03.2023 09:38 4,4 C 3,9 C 0,6 C 95 % 996,7 hPa 0,2 l/m 0 min 2 min 35 W/m 19,3 km/h (3 Bft) 95,65 %
07.03.2023 09:40 4,4 C 3,3 C 0,6 C 95 % 996,7 hPa 0,0 l/m 0 min 2 min 30 W/m 22,5 km/h (4 Bft) 93,62 %
07.03.2023 09:42 4,4 C 3,9 C 0,6 C 95 % 996,7 hPa 0,0 l/m 0 min 2 min 32 W/m 16,1 km/h (3 Bft) 95,74 %
07.03.2023 09:44 4,3 C 3,3 C 0,6 C 95 % 996,7 hPa 0,0 l/m 0 min 2 min 37 W/m 32,2 km/h (5 Bft) 93,62 %
07.03.2023 09:46 4,4 C 3,3 C 0,6 C 95 % 996,8 hPa 0,0 l/m 0 min 2 min 35 W/m 32,2 km/h (5 Bft) 95,74 %
07.03.2023 09:48 4,4 C 3,3 C 0,6 C 95 % 996,8 hPa 0,0 l/m 0 min 2 min 34 W/m 22,5 km/h (4 Bft) 95,74 %
07.03.2023 09:50 4,4 C 3,9 C 0,6 C 95 % 996,8 hPa 0,0 l/m 0 min 2 min 39 W/m 25,7 km/h (4 Bft) 95,74 %
07.03.2023 09:52 4,4 C 3,9 C 0,6 C 95 % 996,8 hPa 0,0 l/m 0 min 2 min 39 W/m 19,3 km/h (3 Bft) 93,48 %
07.03.2023 09:54 4,4 C 3,9 C 0,6 C 95 % 996,8 hPa 0,0 l/m 0 min 2 min 32 W/m 25,7 km/h (4 Bft) 87,23 %
07.03.2023 09:56 4,4 C 3,9 C 0,6 C 95 % 996,9 hPa 0,2 l/m 0 min 2 min 33 W/m 22,5 km/h (4 Bft) 97,87 %
07.03.2023 09:58 4,4 C 3,9 C 0,6 C 95 % 996,8 hPa 0,0 l/m 0 min 2 min 42 W/m 25,7 km/h (4 Bft) 97,87 %
07.03.2023 10:00 4,4 C 3,9 C 0,6 C 95 % 996,9 hPa 0,0 l/m 0 min 2 min 35 W/m 16,1 km/h (3 Bft) 95,74 %
07.03.2023 10:02 4,4 C 3,9 C 0,6 C 95 % 997,0 hPa 0,0 l/m 0 min 2 min 26 W/m 32,2 km/h (5 Bft) 97,87 %
07.03.2023 10:04 4,4 C 3,9 C 0,6 C 95 % 997,1 hPa 0,0 l/m 0 min 2 min 14 W/m 25,7 km/h (4 Bft) 97,83 %
07.03.2023 10:06 4,3 C 3,3 C 0,6 C 95 % 997,3 hPa 0,0 l/m 0 min 2 min 22 W/m 32,2 km/h (5 Bft) 93,62 %
07.03.2023 10:08 4,1 C 2,8 C 0,0 C 94 % 997,3 hPa 0,0 l/m 0 min 2 min 49 W/m 19,3 km/h (3 Bft) 97,87 %
07.03.2023 10:10 3,9 C 2,8 C 0,0 C 94 % 997,3 hPa 0,0 l/m 0 min 2 min 59 W/m 22,5 km/h (4 Bft) 95,74 %
07.03.2023 10:12 3,8 C 2,8 C 0,0 C 94 % 997,3 hPa 0,2 l/m 0 min 2 min 67 W/m 16,1 km/h (3 Bft) 93,62 %
07.03.2023 10:14 3,7 C 2,8 C 0,0 C 94 % 997,3 hPa 0,0 l/m 0 min 2 min 74 W/m 22,5 km/h (4 Bft) 97,87 %
07.03.2023 10:16 3,6 C 2,8 C 0,0 C 94 % 997,3 hPa 0,0 l/m 0 min 2 min 105 W/m 16,1 km/h (3 Bft) 97,87 %
07.03.2023 10:18 3,6 C 2,8 C 0,0 C 94 % 997,3 hPa 0,0 l/m 0 min 2 min 96 W/m 9,7 km/h (2 Bft) 93,48 %
07.03.2023 10:20 3,5 C 2,8 C 0,0 C 94 % 997,4 hPa 0,0 l/m 0 min 2 min 82 W/m 9,7 km/h (2 Bft) 93,62 %
07.03.2023 10:22 3,4 C 2,8 C 0,0 C 94 % 997,4 hPa 0,0 l/m 0 min 2 min 67 W/m 19,3 km/h (3 Bft) 97,87 %
07.03.2023 10:24 3,4 C 2,8 C 0,0 C 95 % 997,5 hPa 0,0 l/m 0 min 2 min 55 W/m 12,9 km/h (3 Bft) 97,87 %
07.03.2023 10:26 3,3 C 2,8 C 0,0 C 95 % 997,5 hPa 0,0 l/m 0 min 2 min 61 W/m 12,9 km/h (3 Bft) 97,87 %
07.03.2023 10:28 3,3 C 2,8 C 0,0 C 95 % 997,5 hPa 0,0 l/m 0 min 2 min 68 W/m 12,9 km/h (3 Bft) 97,87 %
07.03.2023 10:30 3,3 C 2,8 C 0,0 C 95 % 997,5 hPa 0,0 l/m 0 min 2 min 63 W/m 16,1 km/h (3 Bft) 95,65 %
07.03.2023 10:32 3,2 C 2,8 C 0,0 C 95 % 997,5 hPa 0,2 l/m 0 min 2 min 55 W/m 9,7 km/h (2 Bft) 100,00 %
07.03.2023 10:34 3,2 C 2,8 C 0,0 C 95 % 997,5 hPa 0,0 l/m 0 min 2 min 63 W/m 16,1 km/h (3 Bft) 97,87 %
07.03.2023 10:36 3,2 C 2,8 C 0,0 C 95 % 997,5 hPa 0,0 l/m 0 min 2 min 68 W/m 16,1 km/h (3 Bft) 93,62 %
07.03.2023 10:38 3,1 C 2,2 C 0,0 C 95 % 997,5 hPa 0,0 l/m 0 min 2 min 61 W/m 16,1 km/h (3 Bft) 97,87 %
07.03.2023 10:40 3,1 C 2,2 C -0,6 C 95 % 997,5 hPa 0,0 l/m 0 min 2 min 60 W/m 16,1 km/h (3 Bft) 97,87 %
07.03.2023 10:42 3,0 C 2,2 C 0,0 C 95 % 997,6 hPa 0,0 l/m 0 min 2 min 63 W/m 16,1 km/h (3 Bft) 95,74 %
07.03.2023 10:44 3,0 C 2,2 C 0,0 C 95 % 997,6 hPa 0,2 l/m 0 min 2 min 73 W/m 16,1 km/h (3 Bft) 97,83 %
07.03.2023 10:46 3,0 C 2,8 C 0,0 C 95 % 997,6 hPa 0,0 l/m 0 min 2 min 83 W/m 12,9 km/h (3 Bft) 97,87 %
07.03.2023 10:48 3,0 C 2,2 C 0,0 C 95 % 997,6 hPa 0,0 l/m 0 min 2 min 75 W/m 19,3 km/h (3 Bft) 97,87 %
07.03.2023 10:50 2,9 C 2,2 C -0,6 C 95 % 997,6 hPa 0,0 l/m 0 min 2 min 61 W/m 9,7 km/h (2 Bft) 97,87 %
07.03.2023 10:52 2,9 C 2,2 C -0,6 C 95 % 997,7 hPa 0,0 l/m 0 min 2 min 48 W/m 12,9 km/h (3 Bft) 95,74 %
07.03.2023 10:54 2,9 C 2,2 C -0,6 C 95 % 997,7 hPa 0,2 l/m 0 min 2 min 55 W/m 22,5 km/h (4 Bft) 95,74 %
07.03.2023 10:56 2,8 C 2,2 C -0,6 C 95 % 997,6 hPa 0,0 l/m 0 min 2 min 62 W/m 12,9 km/h (3 Bft) 97,87 %
07.03.2023 10:58 2,8 C 2,2 C -0,6 C 95 % 997,7 hPa 0,0 l/m 0 min 2 min 60 W/m 12,9 km/h (3 Bft) 97,30 %
07.03.2023 11:00 2,7 C 2,2 C -0,6 C 95 % 997,7 hPa 0,0 l/m 0 min 2 min 66 W/m 19,3 km/h (3 Bft) 91,30 %
07.03.2023 11:02 2,7 C 2,2 C -0,6 C 95 % 997,7 hPa 0,0 l/m 0 min 2 min 63 W/m 9,7 km/h (2 Bft) 97,87 %
07.03.2023 11:04 2,7 C 2,2 C -0,6 C 95 % 997,7 hPa 0,0 l/m 0 min 2 min 59 W/m 9,7 km/h (2 Bft) 95,74 %
07.03.2023 11:06 2,7 C 2,2 C -0,6 C 95 % 997,7 hPa 0,0 l/m 0 min 2 min 59 W/m 12,9 km/h (3 Bft) 96,61 %
07.03.2023 11:08 2,7 C 2,2 C -0,6 C 96 % 997,8 hPa 0,0 l/m 0 min 2 min 53 W/m 9,7 km/h (2 Bft) 91,43 %
07.03.2023 11:10 2,7 C 2,2 C -0,6 C 96 % 997,8 hPa 0,0 l/m 0 min 2 min 50 W/m 19,3 km/h (3 Bft) 95,74 %
07.03.2023 11:12 2,7 C 2,2 C -0,6 C 96 % 997,8 hPa 0,0 l/m 0 min 2 min 42 W/m 12,9 km/h (3 Bft) 91,49 %
07.03.2023 11:14 2,7 C 2,2 C -0,6 C 96 % 997,8 hPa 0,0 l/m 0 min 2 min 49 W/m 12,9 km/h (3 Bft) 93,48 %
07.03.2023 11:16 2,6 C 2,2 C -0,6 C 96 % 997,7 hPa 0,2 l/m 0 min 2 min 52 W/m 9,7 km/h (2 Bft) 95,74 %
07.03.2023 11:18 2,6 C 2,2 C -0,6 C 96 % 997,7 hPa 0,0 l/m 0 min 2 min 64 W/m 12,9 km/h (3 Bft) 98,15 %
07.03.2023 11:20 2,6 C 2,2 C -0,6 C 96 % 997,8 hPa 0,0 l/m 0 min 2 min 85 W/m 9,7 km/h (2 Bft) 98,00 %
07.03.2023 11:22 2,6 C 2,2 C -0,6 C 96 % 997,8 hPa 0,0 l/m 0 min 2 min 87 W/m 9,7 km/h (2 Bft) 89,19 %
07.03.2023 11:24 2,6 C 2,2 C -0,6 C 96 % 997,9 hPa 0,2 l/m 0 min 2 min 64 W/m 16,1 km/h (3 Bft) 93,62 %
07.03.2023 11:26 2,6 C 2,2 C -0,6 C 96 % 997,8 hPa 0,0 l/m 0 min 2 min 61 W/m 9,7 km/h (2 Bft) 95,74 %
07.03.2023 11:28 2,5 C 2,2 C -0,6 C 96 % 997,8 hPa 0,0 l/m 0 min 2 min 61 W/m 9,7 km/h (2 Bft) 97,83 %
07.03.2023 11:30 2,5 C 2,2 C -0,6 C 96 % 997,6 hPa 0,0 l/m 0 min 2 min 79 W/m 12,9 km/h (3 Bft) 95,74 %
07.03.2023 11:32 2,4 C 2,2 C -0,6 C 96 % 997,8 hPa 0,0 l/m 0 min 2 min 72 W/m 6,4 km/h (2 Bft) 97,87 %
07.03.2023 11:34 2,4 C 2,2 C -0,6 C 96 % 997,8 hPa 0,0 l/m 0 min 2 min 98 W/m 9,7 km/h (2 Bft) 97,87 %
07.03.2023 11:36 2,3 C 1,7 C -0,6 C 96 % 997,7 hPa 0,2 l/m 0 min 2 min 97 W/m 9,7 km/h (2 Bft) 91,49 %
07.03.2023 11:38 2,3 C 1,7 C -0,6 C 96 % 997,8 hPa 0,0 l/m 0 min 2 min 75 W/m 6,4 km/h (2 Bft) 100,00 %
07.03.2023 11:40 2,3 C 1,7 C -0,6 C 96 % 997,9 hPa 0,0 l/m 0 min 2 min 73 W/m 6,4 km/h (2 Bft) 100,00 %
07.03.2023 11:42 2,3 C 1,7 C -0,6 C 96 % 997,8 hPa 0,0 l/m 0 min 2 min 88 W/m 6,4 km/h (2 Bft) 100,00 %
07.03.2023 11:44 2,3 C 1,7 C -0,6 C 96 % 997,8 hPa 0,0 l/m 0 min 2 min 85 W/m 6,4 km/h (2 Bft) 100,00 %
07.03.2023 11:46 2,3 C 2,2 C -0,6 C 96 % 997,9 hPa 0,0 l/m 0 min 2 min 82 W/m 9,7 km/h (2 Bft) 100,00 %
07.03.2023 11:48 2,3 C 1,7 C -0,6 C 96 % 997,9 hPa 0,0 l/m 0 min 2 min 78 W/m 6,4 km/h (2 Bft) 97,87 %
07.03.2023 11:50 2,3 C 1,7 C -0,6 C 96 % 997,9 hPa 0,0 l/m 0 min 2 min 78 W/m 9,7 km/h (2 Bft) 100,00 %
07.03.2023 11:52 2,3 C 1,7 C -0,6 C 96 % 998,0 hPa 0,2 l/m 0 min 2 min 71 W/m 9,7 km/h (2 Bft) 100,00 %
07.03.2023 11:54 2,3 C 2,2 C -0,6 C 96 % 998,0 hPa 0,0 l/m 0 min 2 min 76 W/m 12,9 km/h (3 Bft) 100,00 %
07.03.2023 11:56 2,3 C 2,2 C -0,6 C 96 % 998,0 hPa 0,0 l/m 0 min 2 min 78 W/m 9,7 km/h (2 Bft) 100,00 %
07.03.2023 11:58 2,3 C 1,7 C -0,6 C 96 % 998,0 hPa 0,0 l/m 0 min 2 min 85 W/m 6,4 km/h (2 Bft) 100,00 %
07.03.2023 12:00 2,2 C 1,7 C -0,6 C 96 % 998,0 hPa 0,0 l/m 0 min 2 min 103 W/m 3,2 km/h (1 Bft) 100,00 %
07.03.2023 12:02 2,2 C 2,2 C -0,6 C 96 % 998,0 hPa 0,0 l/m 0 min 2 min 116 W/m 6,4 km/h (2 Bft) 100,00 %
07.03.2023 12:04 2,2 C 2,2 C -0,6 C 96 % 998,0 hPa 0,0 l/m 0 min 2 min 108 W/m 6,4 km/h (2 Bft) 97,87 %
07.03.2023 12:07 2,2 C 2,2 C -0,6 C 96 % 998,0 hPa 0,0 l/m 0 min 3 min 92 W/m 6,4 km/h (2 Bft) 100,00 %
07.03.2023 12:08 2,3 C 2,2 C -0,6 C 96 % 998,0 hPa 0,0 l/m 0 min 1 min 85 W/m 6,4 km/h (2 Bft) 100,00 %
07.03.2023 12:12 2,2 C 2,2 C -0,6 C 96 % 998,0 hPa 0,2 l/m 0 min 4 min 106 W/m 6,4 km/h (2 Bft) 100,00 %
07.03.2023 12:14 2,2 C 2,2 C -0,6 C 96 % 998,0 hPa 0,0 l/m 0 min 2 min 100 W/m 6,4 km/h (2 Bft) 100,00 %
07.03.2023 12:16 2,2 C 2,2 C -0,6 C 96 % 998,0 hPa 0,0 l/m 0 min 2 min 95 W/m 3,2 km/h (1 Bft) 100,00 %
07.03.2023 12:18 2,2 C 2,2 C -0,6 C 96 % 998,0 hPa 0,0 l/m 0 min 2 min 96 W/m 6,4 km/h (2 Bft) 98,15 %
07.03.2023 12:20 2,2 C 2,2 C -0,6 C 96 % 998,0 hPa 0,0 l/m 0 min 2 min 94 W/m 3,2 km/h (1 Bft) 100,00 %
07.03.2023 12:22 2,1 C 2,2 C -0,6 C 96 % 998,0 hPa 0,2 l/m 0 min 2 min 91 W/m 3,2 km/h (1 Bft) 100,00 %
07.03.2023 12:24 2,1 C 2,2 C -0,6 C 96 % 998,0 hPa 0,0 l/m 0 min 2 min 86 W/m 3,2 km/h (1 Bft) 97,87 %
07.03.2023 12:26 2,1 C 2,2 C -0,6 C 96 % 998,0 hPa 0,0 l/m 0 min 2 min 91 W/m 6,4 km/h (2 Bft) 100,00 %
07.03.2023 12:28 2,1 C 2,2 C -0,6 C 96 % 998,0 hPa 0,0 l/m 0 min 2 min 95 W/m 3,2 km/h (1 Bft) 97,87 %
07.03.2023 12:30 2,1 C 2,2 C -0,6 C 96 % 997,9 hPa 0,0 l/m 0 min 2 min 100 W/m 3,2 km/h (1 Bft) 97,87 %
07.03.2023 12:32 2,1 C 2,2 C -0,6 C 96 % 998,0 hPa 0,0 l/m 0 min 2 min 109 W/m 9,7 km/h (2 Bft) 97,87 %
07.03.2023 12:34 2,1 C 2,2 C -0,6 C 97 % 998,0 hPa 0,0 l/m 0 min 2 min 113 W/m 3,2 km/h (1 Bft) 95,65 %
07.03.2023 12:36 2,1 C 2,2 C -0,6 C 96 % 997,9 hPa 0,0 l/m 0 min 2 min 124 W/m 3,2 km/h (1 Bft) 95,74 %
07.03.2023 12:38 2,1 C 2,2 C -0,6 C 97 % 997,9 hPa 0,2 l/m 0 min 2 min 122 W/m 3,2 km/h (1 Bft) 95,74 %
07.03.2023 12:40 2,1 C 2,2 C -0,6 C 97 % 998,0 hPa 0,0 l/m 0 min 2 min 121 W/m 3,2 km/h (1 Bft) 97,87 %
07.03.2023 12:42 2,1 C 2,2 C -0,6 C 96 % 998,0 hPa 0,0 l/m 0 min 2 min 111 W/m 3,2 km/h (1 Bft) 97,87 %
07.03.2023 12:44 2,1 C 2,2 C -0,6 C 97 % 997,9 hPa 0,0 l/m 0 min 2 min 100 W/m 0,0 km/h (0 Bft) 97,87 %
07.03.2023 12:46 2,1 C 2,2 C -0,6 C 97 % 998,0 hPa 0,0 l/m 0 min 2 min 90 W/m 3,2 km/h (1 Bft) 95,74 %
07.03.2023 12:48 2,1 C 2,2 C -0,6 C 97 % 998,0 hPa 0,0 l/m 0 min 2 min 98 W/m 6,4 km/h (2 Bft) 97,83 %
07.03.2023 12:50 2,1 C 2,2 C -0,6 C 97 % 997,9 hPa 0,0 l/m 0 min 2 min 108 W/m 3,2 km/h (1 Bft) 97,87 %
07.03.2023 12:52 2,1 C 1,7 C -0,6 C 96 % 997,9 hPa 0,2 l/m 0 min 2 min 106 W/m 0,0 km/h (0 Bft) 97,87 %
07.03.2023 12:54 2,1 C 2,2 C -0,6 C 96 % 997,9 hPa 0,0 l/m 0 min 2 min 114 W/m 0,0 km/h (0 Bft) 95,74 %
07.03.2023 12:56 2,1 C 2,2 C -0,6 C 96 % 998,0 hPa 0,0 l/m 0 min 2 min 115 W/m 6,4 km/h (2 Bft) 95,74 %
07.03.2023 12:58 2,1 C 2,2 C -0,6 C 96 % 997,9 hPa 0,0 l/m 0 min 2 min 111 W/m 3,2 km/h (1 Bft) 93,62 %
07.03.2023 13:00 2,1 C 2,2 C -0,6 C 97 % 998,0 hPa 0,0 l/m 0 min 2 min 101 W/m 3,2 km/h (1 Bft) 97,83 %
07.03.2023 13:02 2,1 C 1,7 C -0,6 C 97 % 997,9 hPa 0,0 l/m 0 min 2 min 97 W/m 0,0 km/h (0 Bft) 89,36 %
07.03.2023 13:04 2,1 C 2,2 C -0,6 C 97 % 998,0 hPa 0,0 l/m 0 min 2 min 99 W/m 6,4 km/h (2 Bft) 95,74 %
07.03.2023 13:06 2,1 C 2,2 C -0,6 C 97 % 998,0 hPa 0,0 l/m 0 min 2 min 104 W/m 6,4 km/h (2 Bft) 93,22 %
07.03.2023 13:08 2,0 C 2,2 C -0,6 C 97 % 998,0 hPa 0,0 l/m 0 min 2 min 101 W/m 6,4 km/h (2 Bft) 94,29 %
07.03.2023 13:10 2,0 C 2,2 C -0,6 C 97 % 998,0 hPa 0,0 l/m 0 min 2 min 114 W/m 3,2 km/h (1 Bft) 93,62 %
07.03.2023 13:12 2,0 C 2,2 C -0,6 C 97 % 998,0 hPa 0,0 l/m 0 min 2 min 113 W/m 3,2 km/h (1 Bft) 93,62 %
07.03.2023 13:14 2,1 C 2,2 C -0,6 C 97 % 998,0 hPa 0,2 l/m 0 min 2 min 120 W/m 3,2 km/h (1 Bft) 95,65 %
07.03.2023 13:16 2,1 C 2,2 C -0,6 C 97 % 997,9 hPa 0,0 l/m 0 min 2 min 119 W/m 0,0 km/h (0 Bft) 93,62 %
07.03.2023 13:18 2,1 C 2,2 C -0,6 C 97 % 998,0 hPa 0,0 l/m 0 min 2 min 114 W/m 3,2 km/h (1 Bft) 95,74 %
07.03.2023 13:20 2,1 C 2,2 C -0,6 C 97 % 998,0 hPa 0,0 l/m 0 min 2 min 114 W/m 3,2 km/h (1 Bft) 91,49 %
07.03.2023 13:22 2,1 C 2,2 C -0,6 C 97 % 997,9 hPa 0,0 l/m 0 min 2 min 138 W/m 3,2 km/h (1 Bft) 95,74 %
07.03.2023 13:24 2,1 C 2,2 C -0,6 C 97 % 998,0 hPa 0,0 l/m 0 min 2 min 128 W/m 3,2 km/h (1 Bft) 95,74 %
07.03.2023 13:26 2,1 C 2,2 C -0,6 C 97 % 997,9 hPa 0,0 l/m 0 min 2 min 111 W/m 3,2 km/h (1 Bft) 91,49 %
07.03.2023 13:28 2,1 C 2,2 C -0,6 C 97 % 997,9 hPa 0,0 l/m 0 min 2 min 122 W/m 3,2 km/h (1 Bft) 95,65 %
07.03.2023 13:30 2,1 C 2,2 C -0,6 C 97 % 997,9 hPa 0,0 l/m 0 min 2 min 133 W/m 3,2 km/h (1 Bft) 95,74 %
07.03.2023 13:32 2,1 C 2,2 C -0,6 C 97 % 997,9 hPa 0,2 l/m 0 min 2 min 131 W/m 6,4 km/h (2 Bft) 97,87 %
07.03.2023 13:34 2,1 C 2,2 C -0,6 C 97 % 997,9 hPa 0,0 l/m 0 min 2 min 121 W/m 0,0 km/h (0 Bft) 95,74 %
07.03.2023 13:36 2,1 C 2,2 C -0,6 C 97 % 997,9 hPa 0,0 l/m 0 min 2 min 121 W/m 0,0 km/h (0 Bft) 95,74 %
07.03.2023 13:38 2,1 C 2,2 C -0,6 C 97 % 997,8 hPa 0,0 l/m 0 min 2 min 118 W/m 3,2 km/h (1 Bft) 97,87 %
07.03.2023 13:40 2,1 C 2,2 C -0,6 C 97 % 997,8 hPa 0,0 l/m 0 min 2 min 122 W/m 3,2 km/h (1 Bft) 97,83 %
07.03.2023 13:42 2,1 C 2,2 C -0,6 C 97 % 997,8 hPa 0,0 l/m 0 min 2 min 121 W/m 3,2 km/h (1 Bft) 97,87 %
07.03.2023 13:44 2,2 C 2,2 C 0,0 C 97 % 997,8 hPa 0,0 l/m 0 min 2 min 118 W/m 3,2 km/h (1 Bft) 95,74 %
07.03.2023 13:46 2,2 C 2,2 C -0,6 C 97 % 997,8 hPa 0,0 l/m 0 min 2 min 105 W/m 3,2 km/h (1 Bft) 93,62 %
07.03.2023 13:48 2,2 C 2,2 C -0,6 C 97 % 997,8 hPa 0,0 l/m 0 min 2 min 90 W/m 0,0 km/h (0 Bft) 97,87 %
07.03.2023 13:50 2,2 C 2,2 C -0,6 C 97 % 997,8 hPa 0,0 l/m 0 min 2 min 93 W/m 3,2 km/h (1 Bft) 97,87 %
07.03.2023 13:52 2,1 C 2,2 C -0,6 C 97 % 997,8 hPa 0,0 l/m 0 min 2 min 92 W/m 3,2 km/h (1 Bft) 97,87 %
07.03.2023 13:54 2,1 C 2,2 C -0,6 C 97 % 997,8 hPa 0,2 l/m 0 min 2 min 85 W/m 3,2 km/h (1 Bft) 97,83 %
07.03.2023 13:56 2,1 C 1,7 C -0,6 C 97 % 997,8 hPa 0,0 l/m 0 min 2 min 87 W/m 3,2 km/h (1 Bft) 97,87 %
07.03.2023 13:58 2,0 C 1,7 C -0,6 C 97 % 997,8 hPa 0,0 l/m 0 min 2 min 91 W/m 3,2 km/h (1 Bft) 97,87 %
07.03.2023 14:00 1,9 C 1,7 C -1,1 C 97 % 997,8 hPa 0,0 l/m 0 min 2 min 92 W/m 3,2 km/h (1 Bft) 97,87 %
07.03.2023 14:02 2,0 C 2,2 C -0,6 C 97 % 997,8 hPa 0,0 l/m 0 min 2 min 91 W/m 6,4 km/h (2 Bft) 97,87 %
07.03.2023 14:04 2,0 C 2,2 C -0,6 C 97 % 997,8 hPa 0,0 l/m 0 min 2 min 98 W/m 3,2 km/h (1 Bft) 97,87 %
07.03.2023 14:06 2,1 C 2,2 C -0,6 C 97 % 997,8 hPa 0,2 l/m 0 min 2 min 106 W/m 6,4 km/h (2 Bft) 96,55 %
07.03.2023 14:08 2,1 C 2,2 C -0,6 C 97 % 997,8 hPa 0,0 l/m 0 min 2 min 111 W/m 3,2 km/h (1 Bft) 100,00 %
07.03.2023 14:10 2,1 C 2,2 C -0,6 C 97 % 997,8 hPa 0,0 l/m 0 min 2 min 122 W/m 6,4 km/h (2 Bft) 97,87 %
07.03.2023 14:12 2,1 C 2,2 C -0,6 C 97 % 997,8 hPa 0,0 l/m 0 min 2 min 120 W/m 3,2 km/h (1 Bft) 97,87 %
07.03.2023 14:14 2,1 C 2,2 C 0,0 C 97 % 997,8 hPa 0,0 l/m 0 min 2 min 114 W/m 3,2 km/h (1 Bft) 100,00 %
07.03.2023 14:16 2,2 C 2,2 C 0,0 C 97 % 997,8 hPa 0,0 l/m 0 min 2 min 115 W/m 3,2 km/h (1 Bft) 100,00 %
07.03.2023 14:18 2,1 C 2,2 C -0,6 C 97 % 997,8 hPa 0,0 l/m 0 min 2 min 113 W/m 3,2 km/h (1 Bft) 100,00 %
07.03.2023 14:20 2,1 C 2,2 C -0,6 C 97 % 997,8 hPa 0,0 l/m 0 min 2 min 112 W/m 0,0 km/h (0 Bft) 97,87 %
07.03.2023 14:22 2,1 C 2,2 C -0,6 C 97 % 997,8 hPa 0,0 l/m 0 min 2 min 126 W/m 3,2 km/h (1 Bft) 100,00 %
07.03.2023 14:24 2,1 C 2,2 C -0,6 C 97 % 997,8 hPa 0,0 l/m 0 min 2 min 123 W/m 0,0 km/h (0 Bft) 100,00 %
07.03.2023 14:26 2,2 C 2,8 C 0,0 C 97 % 997,7 hPa 0,0 l/m 0 min 2 min 121 W/m 0,0 km/h (0 Bft) 97,87 %
07.03.2023 14:28 2,2 C 2,8 C 0,0 C 97 % 997,8 hPa 0,0 l/m 0 min 2 min 124 W/m 3,2 km/h (1 Bft) 97,87 %
07.03.2023 14:30 2,3 C 2,8 C 0,0 C 97 % 997,8 hPa 0,0 l/m 0 min 2 min 113 W/m 3,2 km/h (1 Bft) 100,00 %
07.03.2023 14:32 2,3 C 2,8 C 0,0 C 97 % 997,8 hPa 0,0 l/m 0 min 2 min 109 W/m 3,2 km/h (1 Bft) 97,87 %
07.03.2023 14:34 2,3 C 2,2 C 0,0 C 97 % 997,8 hPa 0,0 l/m 0 min 2 min 104 W/m 6,4 km/h (2 Bft) 100,00 %
07.03.2023 14:36 2,3 C 2,2 C -0,6 C 97 % 997,8 hPa 0,0 l/m 0 min 2 min 99 W/m 3,2 km/h (1 Bft) 100,00 %
07.03.2023 14:38 2,3 C 2,2 C 0,0 C 97 % 997,8 hPa 0,0 l/m 0 min 2 min 96 W/m 6,4 km/h (2 Bft) 97,87 %
07.03.2023 14:40 2,3 C 2,2 C 0,0 C 97 % 997,8 hPa 0,2 l/m 0 min 2 min 80 W/m 0,0 km/h (0 Bft) 95,74 %
07.03.2023 14:42 2,2 C 2,2 C -0,6 C 97 % 997,8 hPa 0,0 l/m 0 min 2 min 74 W/m 3,2 km/h (1 Bft) 100,00 %
07.03.2023 14:44 2,2 C 2,2 C -0,6 C 97 % 997,8 hPa 0,0 l/m 0 min 2 min 76 W/m 3,2 km/h (1 Bft) 95,74 %
07.03.2023 14:46 2,2 C 2,2 C -0,6 C 97 % 997,7 hPa 0,0 l/m 0 min 2 min 64 W/m 3,2 km/h (1 Bft) 100,00 %
07.03.2023 14:48 2,2 C 2,2 C -0,6 C 97 % 997,8 hPa 0,0 l/m 0 min 2 min 55 W/m 3,2 km/h (1 Bft) 100,00 %
07.03.2023 14:50 2,2 C 2,2 C -0,6 C 97 % 997,8 hPa 0,0 l/m 0 min 2 min 53 W/m 3,2 km/h (1 Bft) 97,92 %
07.03.2023 14:52 2,2 C 2,2 C -0,6 C 97 % 997,8 hPa 0,0 l/m 0 min 2 min 52 W/m 3,2 km/h (1 Bft) 100,00 %
07.03.2023 14:54 2,2 C 2,2 C -0,6 C 97 % 997,9 hPa 0,0 l/m 0 min 2 min 52 W/m 3,2 km/h (1 Bft) 89,36 %
07.03.2023 14:56 2,2 C 2,2 C -0,6 C 97 % 997,9 hPa 0,0 l/m 0 min 2 min 53 W/m 3,2 km/h (1 Bft) 95,74 %
07.03.2023 14:58 2,2 C 1,7 C -0,6 C 97 % 997,8 hPa 0,2 l/m 0 min 2 min 49 W/m 3,2 km/h (1 Bft) 97,87 %
07.03.2023 15:00 2,2 C 2,2 C -0,6 C 97 % 997,8 hPa 0,0 l/m 0 min 2 min 56 W/m 0,0 km/h (0 Bft) 100,00 %
07.03.2023 15:02 2,2 C 1,7 C -0,6 C 97 % 997,8 hPa 0,0 l/m 0 min 2 min 63 W/m 3,2 km/h (1 Bft) 95,74 %
07.03.2023 15:04 2,1 C 1,7 C -0,6 C 97 % 997,8 hPa 0,0 l/m 0 min 2 min 71 W/m 6,4 km/h (2 Bft) 97,83 %
07.03.2023 15:06 2,1 C 1,7 C -0,6 C 97 % 997,8 hPa 0,0 l/m 0 min 2 min 60 W/m 6,4 km/h (2 Bft) 98,31 %
07.03.2023 15:08 2,1 C 1,7 C -0,6 C 97 % 997,8 hPa 0,0 l/m 0 min 2 min 58 W/m 6,4 km/h (2 Bft) 94,29 %
07.03.2023 15:10 2,1 C 1,7 C -0,6 C 97 % 997,9 hPa 0,0 l/m 0 min 2 min 56 W/m 6,4 km/h (2 Bft) 97,87 %
07.03.2023 15:12 2,1 C 1,7 C -0,6 C 97 % 997,9 hPa 0,0 l/m 0 min 2 min 51 W/m 6,4 km/h (2 Bft) 95,74 %
07.03.2023 15:14 2,1 C 1,7 C -0,6 C 97 % 997,9 hPa 0,0 l/m 0 min 2 min 50 W/m 3,2 km/h (1 Bft) 97,87 %
07.03.2023 15:16 2,1 C 1,7 C -0,6 C 97 % 997,9 hPa 0,0 l/m 0 min 2 min 50 W/m 3,2 km/h (1 Bft) 95,74 %
07.03.2023 15:18 2,1 C 1,7 C -0,6 C 97 % 997,9 hPa 0,0 l/m 0 min 2 min 53 W/m 6,4 km/h (2 Bft) 97,83 %
07.03.2023 15:20 2,1 C 1,7 C -0,6 C 97 % 997,9 hPa 0,2 l/m 0 min 2 min 53 W/m 3,2 km/h (1 Bft) 97,96 %
07.03.2023 15:22 2,1 C 1,7 C -0,6 C 97 % 997,9 hPa 0,0 l/m 0 min 2 min 52 W/m 3,2 km/h (1 Bft) 97,87 %
07.03.2023 15:24 2,1 C 1,7 C -0,6 C 97 % 997,9 hPa 0,0 l/m 0 min 2 min 49 W/m 6,4 km/h (2 Bft) 97,87 %
07.03.2023 15:26 2,1 C 1,7 C -0,6 C 97 % 997,9 hPa 0,0 l/m 0 min 2 min 50 W/m 3,2 km/h (1 Bft) 95,65 %
07.03.2023 15:28 2,1 C 1,7 C -0,6 C 97 % 998,0 hPa 0,0 l/m 0 min 2 min 50 W/m 3,2 km/h (1 Bft) 95,74 %
07.03.2023 15:30 2,1 C 1,7 C -0,6 C 97 % 998,0 hPa 0,0 l/m 0 min 2 min 53 W/m 3,2 km/h (1 Bft) 93,62 %
07.03.2023 15:32 2,1 C 1,7 C -0,6 C 97 % 998,0 hPa 0,0 l/m 0 min 2 min 57 W/m 3,2 km/h (1 Bft) 95,74 %
07.03.2023 15:34 2,1 C 1,7 C -0,6 C 97 % 998,0 hPa 0,0 l/m 0 min 2 min 61 W/m 6,4 km/h (2 Bft) 95,74 %
07.03.2023 15:36 2,1 C 1,7 C -0,6 C 97 % 998,1 hPa 0,2 l/m 0 min 2 min 67 W/m 3,2 km/h (1 Bft) 95,74 %
07.03.2023 15:38 2,1 C 2,2 C -0,6 C 97 % 998,1 hPa 0,0 l/m 0 min 2 min 75 W/m 3,2 km/h (1 Bft) 97,87 %
07.03.2023 15:40 2,1 C 2,2 C -0,6 C 97 % 998,0 hPa 0,0 l/m 0 min 2 min 76 W/m 3,2 km/h (1 Bft) 97,83 %
07.03.2023 15:42 2,2 C 2,2 C -0,6 C 97 % 998,1 hPa 0,0 l/m 0 min 2 min 67 W/m 3,2 km/h (1 Bft) 97,87 %
07.03.2023 15:44 2,2 C 2,2 C -0,6 C 97 % 998,1 hPa 0,0 l/m 0 min 2 min 55 W/m 3,2 km/h (1 Bft) 97,87 %
07.03.2023 15:46 2,2 C 2,2 C -0,6 C 97 % 998,1 hPa 0,0 l/m 0 min 2 min 52 W/m 6,4 km/h (2 Bft) 97,87 %
07.03.2023 15:48 2,2 C 2,2 C -0,6 C 97 % 998,1 hPa 0,0 l/m 0 min 2 min 52 W/m 3,2 km/h (1 Bft) 95,74 %
07.03.2023 15:50 2,2 C 2,2 C -0,6 C 97 % 998,1 hPa 0,0 l/m 0 min 2 min 45 W/m 3,2 km/h (1 Bft) 97,87 %
07.03.2023 15:52 2,2 C 1,7 C -0,6 C 97 % 998,1 hPa 0,0 l/m 0 min 2 min 46 W/m 3,2 km/h (1 Bft) 97,87 %
07.03.2023 15:54 2,2 C 2,2 C -0,6 C 97 % 998,0 hPa 0,0 l/m 0 min 2 min 43 W/m 3,2 km/h (1 Bft) 93,48 %
07.03.2023 15:56 2,2 C 2,2 C -0,6 C 97 % 998,1 hPa 0,0 l/m 0 min 2 min 39 W/m 3,2 km/h (1 Bft) 95,74 %
07.03.2023 15:58 2,2 C 2,2 C -0,6 C 97 % 998,0 hPa 0,0 l/m 0 min 2 min 40 W/m 3,2 km/h (1 Bft) 97,87 %
07.03.2023 16:00 2,2 C 2,2 C -0,6 C 97 % 998,1 hPa 0,0 l/m 0 min 2 min 46 W/m 0,0 km/h (0 Bft) 93,62 %
07.03.2023 16:02 2,2 C 2,2 C -0,6 C 97 % 998,1 hPa 0,0 l/m 0 min 2 min 42 W/m 3,2 km/h (1 Bft) 95,74 %
07.03.2023 16:04 2,2 C 2,2 C -0,6 C 97 % 998,1 hPa 0,0 l/m 0 min 2 min 39 W/m 3,2 km/h (1 Bft) 97,87 %
07.03.2023 16:06 2,2 C 1,7 C -0,6 C 97 % 998,1 hPa 0,2 l/m 0 min 2 min 37 W/m 6,4 km/h (2 Bft) 97,87 %
07.03.2023 16:08 2,2 C 1,7 C -0,6 C 97 % 998,1 hPa 0,0 l/m 0 min 2 min 34 W/m 3,2 km/h (1 Bft) 94,29 %
07.03.2023 16:10 2,2 C 1,7 C -0,6 C 97 % 998,1 hPa 0,0 l/m 0 min 2 min 32 W/m 3,2 km/h (1 Bft) 95,65 %
07.03.2023 16:12 2,2 C 1,7 C -0,6 C 97 % 998,1 hPa 0,0 l/m 0 min 2 min 33 W/m 9,7 km/h (2 Bft) 94,55 %
07.03.2023 16:14 2,1 C 1,7 C -0,6 C 97 % 998,1 hPa 0,0 l/m 0 min 2 min 37 W/m 3,2 km/h (1 Bft) 97,87 %
07.03.2023 16:16 2,1 C 1,7 C -0,6 C 97 % 998,1 hPa 0,0 l/m 0 min 2 min 39 W/m 3,2 km/h (1 Bft) 93,62 %
07.03.2023 16:18 2,1 C 1,7 C -0,6 C 97 % 998,1 hPa 0,0 l/m 0 min 2 min 37 W/m 6,4 km/h (2 Bft) 98,00 %
07.03.2023 16:20 2,1 C 1,7 C -0,6 C 97 % 998,1 hPa 0,0 l/m 0 min 2 min 35 W/m 3,2 km/h (1 Bft) 97,87 %
07.03.2023 16:22 2,1 C 1,7 C -0,6 C 97 % 998,2 hPa 0,0 l/m 0 min 2 min 33 W/m 6,4 km/h (2 Bft) 97,87 %
07.03.2023 16:24 2,1 C 1,7 C -0,6 C 97 % 998,1 hPa 0,2 l/m 0 min 2 min 33 W/m 9,7 km/h (2 Bft) 97,14 %
07.03.2023 16:26 2,1 C 1,7 C -0,6 C 97 % 998,2 hPa 0,0 l/m 0 min 2 min 36 W/m 3,2 km/h (1 Bft) 96,36 %
07.03.2023 16:28 2,1 C 1,7 C -0,6 C 97 % 998,2 hPa 0,0 l/m 0 min 2 min 36 W/m 3,2 km/h (1 Bft) 96,00 %
07.03.2023 16:30 2,1 C 1,7 C -0,6 C 97 % 998,1 hPa 0,0 l/m 0 min 2 min 34 W/m 3,2 km/h (1 Bft) 95,74 %
07.03.2023 16:32 2,1 C 1,7 C -0,6 C 97 % 998,2 hPa 0,0 l/m 0 min 2 min 30 W/m 6,4 km/h (2 Bft) 97,87 %
07.03.2023 16:34 2,1 C 1,7 C -0,6 C 97 % 998,1 hPa 0,0 l/m 0 min 2 min 28 W/m 9,7 km/h (2 Bft) 95,74 %
07.03.2023 16:36 2,0 C 1,7 C -0,6 C 97 % 998,2 hPa 0,0 l/m 0 min 2 min 24 W/m 6,4 km/h (2 Bft) 95,74 %
07.03.2023 16:38 2,0 C 1,7 C -0,6 C 97 % 998,2 hPa 0,0 l/m 0 min 2 min 26 W/m 6,4 km/h (2 Bft) 95,65 %
07.03.2023 16:40 2,0 C 1,7 C -0,6 C 97 % 998,1 hPa 0,0 l/m 0 min 2 min 32 W/m 6,4 km/h (2 Bft) 97,87 %
07.03.2023 16:42 1,9 C 1,7 C -0,6 C 97 % 998,1 hPa 0,0 l/m 0 min 2 min 34 W/m 3,2 km/h (1 Bft) 95,74 %
07.03.2023 16:44 1,9 C 1,7 C -0,6 C 97 % 998,1 hPa 0,0 l/m 0 min 2 min 38 W/m 6,4 km/h (2 Bft) 95,74 %
07.03.2023 16:46 1,9 C 1,1 C -0,6 C 97 % 998,1 hPa 0,0 l/m 0 min 2 min 39 W/m 9,7 km/h (2 Bft) 97,87 %
07.03.2023 16:48 1,9 C 1,1 C -0,6 C 97 % 998,1 hPa 0,0 l/m 0 min 2 min 40 W/m 16,1 km/h (3 Bft) 95,74 %
07.03.2023 16:50 1,9 C 1,1 C -0,6 C 97 % 998,1 hPa 0,0 l/m 0 min 2 min 36 W/m 6,4 km/h (2 Bft) 97,87 %
07.03.2023 16:52 1,9 C 1,7 C -0,6 C 97 % 998,1 hPa 0,0 l/m 0 min 2 min 32 W/m 6,4 km/h (2 Bft) 97,83 %
07.03.2023 16:54 1,9 C 1,7 C -0,6 C 97 % 998,1 hPa 0,0 l/m 0 min 2 min 28 W/m 6,4 km/h (2 Bft) 45,95 %
07.03.2023 16:56 1,9 C 1,1 C -0,6 C 97 % 998,2 hPa 0,0 l/m 0 min 2 min 31 W/m 9,7 km/h (2 Bft) 95,74 %
07.03.2023 16:58 1,8 C 1,1 C -1,1 C 97 % 998,2 hPa 0,0 l/m 0 min 2 min 30 W/m 12,9 km/h (3 Bft) 97,87 %
07.03.2023 17:00 1,8 C 1,1 C -1,1 C 97 % 998,2 hPa 0,0 l/m 0 min 2 min 31 W/m 12,9 km/h (3 Bft) 95,74 %
07.03.2023 17:02 1,8 C 1,1 C -1,1 C 97 % 998,2 hPa 0,2 l/m 0 min 2 min 32 W/m 6,4 km/h (2 Bft) 97,87 %
07.03.2023 17:04 1,8 C 1,1 C -1,1 C 97 % 998,2 hPa 0,0 l/m 0 min 2 min 30 W/m 16,1 km/h (3 Bft) 97,83 %
07.03.2023 17:06 1,7 C 1,1 C -1,1 C 97 % 998,2 hPa 0,0 l/m 0 min 2 min 29 W/m 12,9 km/h (3 Bft) 97,87 %
07.03.2023 17:08 1,7 C 1,1 C -1,1 C 97 % 998,2 hPa 0,0 l/m 0 min 2 min 26 W/m 6,4 km/h (2 Bft) 95,74 %
07.03.2023 17:10 1,7 C 1,1 C -1,1 C 97 % 998,2 hPa 0,0 l/m 0 min 2 min 25 W/m 12,9 km/h (3 Bft) 97,87 %
07.03.2023 17:12 1,7 C 1,1 C -1,1 C 97 % 998,3 hPa 0,0 l/m 0 min 2 min 27 W/m 3,2 km/h (1 Bft) 97,87 %
07.03.2023 17:14 1,7 C 1,1 C -0,6 C 97 % 998,3 hPa 0,0 l/m 0 min 2 min 28 W/m 9,7 km/h (2 Bft) 97,87 %
07.03.2023 17:16 1,7 C 1,1 C -1,1 C 97 % 998,3 hPa 0,0 l/m 0 min 2 min 28 W/m 9,7 km/h (2 Bft) 97,87 %
07.03.2023 17:18 1,7 C 1,1 C -1,1 C 97 % 998,3 hPa 0,0 l/m 0 min 2 min 27 W/m 6,4 km/h (2 Bft) 95,65 %
07.03.2023 17:20 1,7 C 1,1 C -0,6 C 97 % 998,3 hPa 0,0 l/m 0 min 2 min 28 W/m 6,4 km/h (2 Bft) 97,87 %
07.03.2023 17:22 1,7 C 1,1 C -0,6 C 97 % 998,3 hPa 0,0 l/m 0 min 2 min 28 W/m 6,4 km/h (2 Bft) 97,87 %
07.03.2023 17:24 1,7 C 1,1 C -0,6 C 97 % 998,3 hPa 0,0 l/m 0 min 2 min 27 W/m 9,7 km/h (2 Bft) 97,87 %
07.03.2023 17:26 1,7 C 1,1 C -1,1 C 97 % 998,3 hPa 0,0 l/m 0 min 2 min 28 W/m 9,7 km/h (2 Bft) 97,87 %
07.03.2023 17:28 1,7 C 1,1 C -1,1 C 97 % 998,4 hPa 0,0 l/m 0 min 2 min 26 W/m 9,7 km/h (2 Bft) 97,87 %
07.03.2023 17:30 1,7 C 1,1 C -1,1 C 97 % 998,3 hPa 0,0 l/m 0 min 2 min 27 W/m 9,7 km/h (2 Bft) 100,00 %
07.03.2023 17:32 1,7 C 1,1 C -0,6 C 97 % 998,4 hPa 0,0 l/m 0 min 2 min 29 W/m 9,7 km/h (2 Bft) 100,00 %
07.03.2023 17:34 1,8 C 1,1 C -1,1 C 97 % 998,4 hPa 0,0 l/m 0 min 2 min 27 W/m 9,7 km/h (2 Bft) 100,00 %
07.03.2023 17:36 1,8 C 1,7 C -0,6 C 97 % 998,5 hPa 0,0 l/m 0 min 0 min 24 W/m 6,4 km/h (2 Bft) 100,00 %
07.03.2023 17:38 1,8 C 1,1 C -0,6 C 97 % 998,4 hPa 0,0 l/m 0 min 0 min 19 W/m 6,4 km/h (2 Bft) 95,74 %
07.03.2023 17:40 1,8 C 1,7 C -0,6 C 97 % 998,5 hPa 0,2 l/m 0 min 2 min 20 W/m 6,4 km/h (2 Bft) 100,00 %
07.03.2023 17:42 1,8 C 1,7 C -0,6 C 97 % 998,5 hPa 0,0 l/m 0 min 2 min 23 W/m 3,2 km/h (1 Bft) 100,00 %
07.03.2023 17:44 1,8 C 1,7 C -0,6 C 97 % 998,5 hPa 0,0 l/m 0 min 2 min 21 W/m 3,2 km/h (1 Bft) 100,00 %
07.03.2023 17:46 1,8 C 1,7 C -0,6 C 97 % 998,5 hPa 0,0 l/m 0 min 2 min 18 W/m 6,4 km/h (2 Bft) 95,74 %
07.03.2023 17:48 1,8 C 1,1 C -0,6 C 97 % 998,6 hPa 0,0 l/m 0 min 2 min 15 W/m 9,7 km/h (2 Bft) 100,00 %
07.03.2023 17:50 1,9 C 1,7 C -0,6 C 97 % 998,7 hPa 0,0 l/m 0 min 2 min 14 W/m 6,4 km/h (2 Bft) 100,00 %
07.03.2023 17:52 1,8 C 1,1 C -0,6 C 97 % 998,7 hPa 0,0 l/m 0 min 2 min 13 W/m 6,4 km/h (2 Bft) 100,00 %
07.03.2023 17:54 1,8 C 1,1 C -1,1 C 97 % 998,7 hPa 0,0 l/m 0 min 2 min 14 W/m 0,0 km/h (0 Bft) 100,00 %
07.03.2023 17:56 1,8 C 1,1 C -1,1 C 97 % 998,8 hPa 0,0 l/m 0 min 2 min 12 W/m 16,1 km/h (3 Bft) 100,00 %
07.03.2023 17:58 1,8 C 1,1 C -1,1 C 97 % 998,8 hPa 0,0 l/m 0 min 2 min 10 W/m 12,9 km/h (3 Bft) 100,00 %
07.03.2023 18:00 1,8 C 1,1 C -1,1 C 97 % 998,8 hPa 0,0 l/m 0 min 2 min 7 W/m 6,4 km/h (2 Bft) 100,00 %
07.03.2023 18:02 1,8 C 1,1 C -1,1 C 97 % 998,9 hPa 0,0 l/m 0 min 2 min 5 W/m 6,4 km/h (2 Bft) 100,00 %
07.03.2023 18:04 1,8 C 1,1 C -1,1 C 97 % 998,9 hPa 0,0 l/m 0 min 2 min 6 W/m 6,4 km/h (2 Bft) 100,00 %
07.03.2023 18:07 1,7 C 1,1 C -1,1 C 97 % 998,9 hPa 0,0 l/m 0 min 3 min 5 W/m 9,7 km/h (2 Bft) 100,00 %
07.03.2023 18:08 1,7 C 1,1 C -1,1 C 97 % 998,9 hPa 0,0 l/m 0 min 1 min 0 W/m 6,4 km/h (2 Bft) 100,00 %
07.03.2023 18:12 1,6 C 1,1 C -1,1 C 97 % 999,1 hPa 0,0 l/m 0 min 4 min 0 W/m 6,4 km/h (2 Bft) 100,00 %
07.03.2023 18:14 1,6 C 1,1 C -1,1 C 97 % 999,1 hPa 0,0 l/m 0 min 2 min 0 W/m 6,4 km/h (2 Bft) 100,00 %
07.03.2023 18:16 1,6 C 1,1 C -1,1 C 97 % 999,1 hPa 0,2 l/m 0 min 2 min 0 W/m 12,9 km/h (3 Bft) 100,00 %
07.03.2023 18:18 1,5 C 1,1 C -1,1 C 97 % 999,2 hPa 0,0 l/m 0 min 2 min 0 W/m 6,4 km/h (2 Bft) 100,00 %
07.03.2023 18:20 1,5 C 0,6 C -1,1 C 97 % 999,2 hPa 0,0 l/m 0 min 2 min 0 W/m 3,2 km/h (1 Bft) 97,87 %
07.03.2023 18:22 1,4 C 0,6 C -1,1 C 97 % 999,2 hPa 0,0 l/m 0 min 2 min 0 W/m 3,2 km/h (1 Bft) 97,87 %
07.03.2023 18:24 1,4 C 0,6 C -1,1 C 97 % 999,2 hPa 0,0 l/m 0 min 2 min 0 W/m 6,4 km/h (2 Bft) 97,83 %
07.03.2023 18:26 1,4 C 0,6 C -1,1 C 97 % 999,2 hPa 0,0 l/m 0 min 2 min 0 W/m 3,2 km/h (1 Bft) 100,00 %
07.03.2023 18:28 1,3 C 0,6 C -1,1 C 97 % 999,3 hPa 0,0 l/m 0 min 2 min 0 W/m 3,2 km/h (1 Bft) 100,00 %
07.03.2023 18:30 1,3 C 0,6 C -1,1 C 97 % 999,3 hPa 0,2 l/m 0 min 2 min 0 W/m 6,4 km/h (2 Bft) 97,87 %
07.03.2023 18:32 1,3 C 0,6 C -1,1 C 97 % 999,3 hPa 0,0 l/m 0 min 2 min 0 W/m 6,4 km/h (2 Bft) 95,74 %
07.03.2023 18:34 1,3 C 0,6 C -1,1 C 97 % 999,3 hPa 0,0 l/m 0 min 2 min 0 W/m 3,2 km/h (1 Bft) 97,87 %
07.03.2023 18:36 1,3 C 1,1 C -1,1 C 97 % 999,4 hPa 0,0 l/m 0 min 2 min 0 W/m 3,2 km/h (1 Bft) 97,87 %
07.03.2023 18:38 1,4 C 1,1 C -1,1 C 97 % 999,5 hPa 0,0 l/m 0 min 2 min 0 W/m 6,4 km/h (2 Bft) 97,83 %
07.03.2023 18:40 1,4 C 1,1 C -1,1 C 97 % 999,5 hPa 0,0 l/m 0 min 2 min 0 W/m 3,2 km/h (1 Bft) 93,62 %
07.03.2023 18:42 1,5 C 1,1 C -1,1 C 97 % 999,5 hPa 0,0 l/m 0 min 2 min 0 W/m 3,2 km/h (1 Bft) 93,62 %
07.03.2023 18:44 1,6 C 1,1 C -1,1 C 97 % 999,6 hPa 0,0 l/m 0 min 2 min 0 W/m 3,2 km/h (1 Bft) 91,49 %
07.03.2023 18:46 1,6 C 1,1 C -1,1 C 97 % 999,6 hPa 0,0 l/m 0 min 2 min 0 W/m 3,2 km/h (1 Bft) 93,62 %
07.03.2023 18:48 1,6 C 1,1 C -1,1 C 97 % 999,7 hPa 0,0 l/m 0 min 2 min 0 W/m 6,4 km/h (2 Bft) 93,62 %
07.03.2023 18:50 1,6 C 1,1 C -1,1 C 97 % 999,7 hPa 0,0 l/m 0 min 2 min 0 W/m 3,2 km/h (1 Bft) 91,30 %
07.03.2023 18:52 1,6 C 1,1 C -1,1 C 97 % 999,7 hPa 0,0 l/m 0 min 2 min 0 W/m 6,4 km/h (2 Bft) 91,49 %
07.03.2023 18:54 1,6 C 1,1 C -1,7 C 97 % 999,7 hPa 0,0 l/m 0 min 2 min 0 W/m 3,2 km/h (1 Bft) 93,62 %
07.03.2023 18:56 1,6 C 1,1 C -1,7 C 97 % 999,8 hPa 0,0 l/m 0 min 2 min 0 W/m 3,2 km/h (1 Bft) 95,74 %
07.03.2023 18:58 1,6 C 1,1 C -1,7 C 97 % 999,8 hPa 0,0 l/m 0 min 2 min 0 W/m 3,2 km/h (1 Bft) 91,49 %
07.03.2023 19:00 1,6 C 1,1 C -1,7 C 97 % 999,8 hPa 0,0 l/m 0 min 2 min 0 W/m 0,0 km/h (0 Bft) 91,49 %
07.03.2023 19:02 1,6 C 1,1 C -1,7 C 97 % 999,9 hPa 0,2 l/m 0 min 2 min 0 W/m 3,2 km/h (1 Bft) 93,62 %
07.03.2023 19:04 1,5 C 0,6 C -1,7 C 97 % 1000,0 hPa 0,0 l/m 0 min 2 min 0 W/m 3,2 km/h (1 Bft) 93,48 %
07.03.2023 19:06 1,5 C 1,1 C -1,7 C 97 % 999,9 hPa 0,0 l/m 0 min 2 min 0 W/m 3,2 km/h (1 Bft) 91,49 %
07.03.2023 19:08 1,5 C 1,1 C -1,7 C 97 % 1000,0 hPa 0,0 l/m 0 min 2 min 0 W/m 3,2 km/h (1 Bft) 91,49 %
07.03.2023 19:10 1,5 C 0,6 C -1,7 C 97 % 1000,0 hPa 0,0 l/m 0 min 2 min 0 W/m 3,2 km/h (1 Bft) 93,62 %
07.03.2023 19:12 1,5 C 0,6 C -1,7 C 97 % 1000,0 hPa 0,0 l/m 0 min 2 min 0 W/m 3,2 km/h (1 Bft) 93,62 %
07.03.2023 19:14 1,4 C 0,6 C -1,7 C 97 % 1000,1 hPa 0,0 l/m 0 min 2 min 0 W/m 3,2 km/h (1 Bft) 93,62 %
07.03.2023 19:16 1,4 C 0,6 C -1,7 C 97 % 1000,1 hPa 0,0 l/m 0 min 2 min 0 W/m 3,2 km/h (1 Bft) 93,62 %
07.03.2023 19:18 1,4 C 0,6 C -1,7 C 97 % 1000,2 hPa 0,0 l/m 0 min 2 min 0 W/m 3,2 km/h (1 Bft) 95,65 %
07.03.2023 19:20 1,4 C 0,6 C -1,7 C 97 % 1000,2 hPa 0,0 l/m 0 min 2 min 0 W/m 3,2 km/h (1 Bft) 95,74 %
07.03.2023 19:22 1,4 C 0,6 C -1,7 C 97 % 1000,2 hPa 0,0 l/m 0 min 2 min 0 W/m 3,2 km/h (1 Bft) 46,34 %
07.03.2023 19:24 1,3 C 0,6 C -1,7 C 97 % 1000,2 hPa 0,0 l/m 0 min 2 min 0 W/m 3,2 km/h (1 Bft) 95,74 %
07.03.2023 19:26 1,4 C 0,6 C -1,7 C 97 % 1000,2 hPa 0,0 l/m 0 min 2 min 0 W/m 3,2 km/h (1 Bft) 97,87 %
07.03.2023 19:28 1,4 C 0,6 C -1,7 C 97 % 1000,3 hPa 0,0 l/m 0 min 2 min 0 W/m 6,4 km/h (2 Bft) 97,87 %
07.03.2023 19:30 1,3 C 0,6 C -1,7 C 97 % 1000,2 hPa 0,0 l/m 0 min 2 min 0 W/m 3,2 km/h (1 Bft) 100,00 %
07.03.2023 19:32 1,3 C 0,6 C -1,7 C 97 % 1000,2 hPa 0,0 l/m 0 min 2 min 0 W/m 0,0 km/h (0 Bft) 100,00 %
07.03.2023 19:34 1,3 C 0,6 C -1,7 C 97 % 1000,2 hPa 0,0 l/m 0 min 2 min 0 W/m 0,0 km/h (0 Bft) 97,87 %
07.03.2023 19:36 1,3 C 0,6 C -1,7 C 97 % 1000,2 hPa 0,0 l/m 0 min 2 min 0 W/m 0,0 km/h (0 Bft) 100,00 %
07.03.2023 19:38 1,3 C 0,6 C -1,7 C 97 % 1000,3 hPa 0,2 l/m 0 min 2 min 0 W/m 3,2 km/h (1 Bft) 100,00 %
07.03.2023 19:40 1,3 C 0,6 C -1,7 C 97 % 1000,4 hPa 0,0 l/m 0 min 2 min 0 W/m 3,2 km/h (1 Bft) 100,00 %
07.03.2023 19:42 1,3 C 0,6 C -1,7 C 97 % 1000,4 hPa 0,0 l/m 0 min 2 min 0 W/m 6,4 km/h (2 Bft) 95,74 %
07.03.2023 19:44 1,3 C 0,6 C -1,7 C 97 % 1000,4 hPa 0,0 l/m 0 min 2 min 0 W/m 3,2 km/h (1 Bft) 100,00 %
07.03.2023 19:46 1,3 C 0,6 C -1,7 C 97 % 1000,4 hPa 0,0 l/m 0 min 2 min 0 W/m 3,2 km/h (1 Bft) 100,00 %
07.03.2023 19:48 1,2 C 0,6 C -1,7 C 97 % 1000,4 hPa 0,0 l/m 0 min 2 min 0 W/m 3,2 km/h (1 Bft) 100,00 %
07.03.2023 19:50 1,2 C 0,6 C -1,7 C 97 % 1000,3 hPa 0,0 l/m 0 min 2 min 0 W/m 3,2 km/h (1 Bft) 100,00 %
07.03.2023 19:52 1,2 C 0,6 C -1,7 C 97 % 1000,3 hPa 0,0 l/m 0 min 2 min 0 W/m 0,0 km/h (0 Bft) 95,74 %
07.03.2023 19:54 1,2 C 0,6 C -1,7 C 97 % 1000,3 hPa 0,0 l/m 0 min 2 min 0 W/m 0,0 km/h (0 Bft) 100,00 %
07.03.2023 19:56 1,2 C 0,6 C -1,7 C 97 % 1000,2 hPa 0,0 l/m 0 min 2 min 0 W/m 0,0 km/h (0 Bft) 97,87 %
07.03.2023 19:58 1,1 C 0,6 C -1,7 C 97 % 1000,1 hPa 0,0 l/m 0 min 0 min 0 W/m 0,0 km/h (0 Bft) 97,83 %
07.03.2023 20:00 1,1 C 0,6 C -1,7 C 97 % 1000,1 hPa 0,0 l/m 0 min 0 min 0 W/m 0,0 km/h (0 Bft) 100,00 %
07.03.2023 20:02 1,1 C 0,6 C -1,1 C 97 % 1000,2 hPa 0,0 l/m 0 min 0 min 0 W/m 3,2 km/h (1 Bft) 100,00 %
07.03.2023 20:04 1,1 C 0,6 C -1,1 C 97 % 1000,2 hPa 0,0 l/m 0 min 0 min 0 W/m 6,4 km/h (2 Bft) 95,12 %
07.03.2023 20:06 1,1 C 0,6 C -1,1 C 97 % 1000,2 hPa 0,0 l/m 0 min 0 min 0 W/m 6,4 km/h (2 Bft) 100,00 %
07.03.2023 20:08 1,1 C 0,6 C -1,1 C 97 % 1000,2 hPa 0,0 l/m 0 min 0 min 0 W/m 0,0 km/h (0 Bft) 97,92 %
07.03.2023 20:10 1,1 C 0,6 C -1,1 C 97 % 1000,3 hPa 0,0 l/m 0 min 0 min 0 W/m 6,4 km/h (2 Bft) 97,37 %
07.03.2023 20:12 1,1 C 0,6 C -1,1 C 97 % 1000,2 hPa 0,0 l/m 0 min 0 min 0 W/m 3,2 km/h (1 Bft) 100,00 %
07.03.2023 20:14 1,1 C 0,6 C -1,1 C 97 % 1000,3 hPa 0,0 l/m 0 min 0 min 0 W/m 6,4 km/h (2 Bft) 100,00 %
07.03.2023 20:16 1,1 C 0,6 C -1,1 C 97 % 1000,2 hPa 0,0 l/m 0 min 0 min 0 W/m 6,4 km/h (2 Bft) 95,74 %
07.03.2023 20:18 1,1 C 0,6 C -1,1 C 97 % 1000,3 hPa 0,0 l/m 0 min 0 min 0 W/m 3,2 km/h (1 Bft) 100,00 %
07.03.2023 20:20 1,2 C 0,6 C -1,1 C 97 % 1000,3 hPa 0,0 l/m 0 min 0 min 0 W/m 3,2 km/h (1 Bft) 100,00 %
07.03.2023 20:22 1,1 C 0,6 C -1,1 C 97 % 1000,4 hPa 0,0 l/m 0 min 0 min 0 W/m 3,2 km/h (1 Bft) 100,00 %
07.03.2023 20:24 1,1 C 0,6 C -1,1 C 97 % 1000,5 hPa 0,0 l/m 0 min 0 min 0 W/m 6,4 km/h (2 Bft) 95,74 %
07.03.2023 20:26 1,1 C 0,6 C -1,1 C 97 % 1000,5 hPa 0,0 l/m 0 min 0 min 0 W/m 3,2 km/h (1 Bft) 97,83 %
07.03.2023 20:28 1,1 C 0,6 C -1,1 C 97 % 1000,4 hPa 0,0 l/m 0 min 0 min 0 W/m 6,4 km/h (2 Bft) 97,87 %
07.03.2023 20:30 1,1 C 0,6 C -1,7 C 97 % 1000,4 hPa 0,0 l/m 0 min 0 min 0 W/m 6,4 km/h (2 Bft) 97,87 %
07.03.2023 20:32 1,1 C 0,6 C -1,1 C 97 % 1000,3 hPa 0,2 l/m 0 min 0 min 0 W/m 3,2 km/h (1 Bft) 97,87 %
07.03.2023 20:34 1,1 C 0,6 C -1,1 C 97 % 1000,4 hPa 0,0 l/m 0 min 0 min 0 W/m 3,2 km/h (1 Bft) 97,87 %
07.03.2023 20:36 1,1 C 0,6 C -1,1 C 97 % 1000,4 hPa 0,0 l/m 0 min 0 min 0 W/m 6,4 km/h (2 Bft) 97,87 %
07.03.2023 20:38 1,1 C 0,6 C -1,1 C 97 % 1000,4 hPa 0,0 l/m 0 min 0 min 0 W/m 6,4 km/h (2 Bft) 97,87 %
07.03.2023 20:40 1,1 C 0,6 C -1,7 C 97 % 1000,5 hPa 0,0 l/m 0 min 0 min 0 W/m 3,2 km/h (1 Bft) 97,83 %
07.03.2023 20:42 1,1 C 0,6 C -1,1 C 97 % 1000,5 hPa 0,0 l/m 0 min 0 min 0 W/m 6,4 km/h (2 Bft) 97,87 %
07.03.2023 20:44 1,1 C 0,6 C -1,1 C 97 % 1000,4 hPa 0,0 l/m 0 min 0 min 0 W/m 3,2 km/h (1 Bft) 95,74 %
07.03.2023 20:46 1,1 C 0,6 C -1,1 C 97 % 1000,4 hPa 0,0 l/m 0 min 0 min 0 W/m 3,2 km/h (1 Bft) 97,87 %
07.03.2023 20:48 1,1 C 0,6 C -1,1 C 97 % 1000,5 hPa 0,0 l/m 0 min 0 min 0 W/m 3,2 km/h (1 Bft) 95,74 %
07.03.2023 20:50 1,1 C 0,6 C -1,1 C 97 % 1000,6 hPa 0,0 l/m 0 min 0 min 0 W/m 3,2 km/h (1 Bft) 97,87 %
07.03.2023 20:52 1,1 C 0,6 C -1,1 C 97 % 1000,6 hPa 0,0 l/m 0 min 0 min 0 W/m 9,7 km/h (2 Bft) 97,83 %
07.03.2023 20:54 1,1 C 0,6 C -1,7 C 97 % 1000,6 hPa 0,0 l/m 0 min 0 min 0 W/m 3,2 km/h (1 Bft) 100,00 %
07.03.2023 20:56 1,1 C 0,6 C -1,7 C 97 % 1000,6 hPa 0,0 l/m 0 min 0 min 0 W/m 3,2 km/h (1 Bft) 100,00 %
07.03.2023 20:58 1,1 C 0,6 C -1,7 C 97 % 1000,6 hPa 0,0 l/m 0 min 0 min 0 W/m 3,2 km/h (1 Bft) 97,87 %
07.03.2023 21:00 1,1 C 0,6 C -1,1 C 97 % 1000,6 hPa 0,0 l/m 0 min 0 min 0 W/m 3,2 km/h (1 Bft) 100,00 %
07.03.2023 21:02 1,1 C 0,6 C -1,7 C 97 % 1000,6 hPa 0,0 l/m 0 min 0 min 0 W/m 6,4 km/h (2 Bft) 97,87 %
07.03.2023 21:04 1,0 C 0,6 C -1,7 C 97 % 1000,6 hPa 0,0 l/m 0 min 0 min 0 W/m 9,7 km/h (2 Bft) 100,00 %
07.03.2023 21:06 1,0 C 0,6 C -1,1 C 97 % 1000,7 hPa 0,0 l/m 0 min 0 min 0 W/m 3,2 km/h (1 Bft) 98,28 %
07.03.2023 21:08 1,0 C 0,6 C -1,7 C 97 % 1000,7 hPa 0,0 l/m 0 min 0 min 0 W/m 6,4 km/h (2 Bft) 97,30 %
07.03.2023 21:10 1,0 C 0,6 C -1,7 C 97 % 1000,7 hPa 0,0 l/m 0 min 0 min 0 W/m 3,2 km/h (1 Bft) 97,92 %
07.03.2023 21:12 1,1 C 0,6 C -1,7 C 97 % 1000,7 hPa 0,0 l/m 0 min 0 min 0 W/m 0,0 km/h (0 Bft) 97,87 %
07.03.2023 21:14 1,1 C 0,6 C -1,7 C 97 % 1000,8 hPa 0,0 l/m 0 min 0 min 0 W/m 0,0 km/h (0 Bft) 97,73 %
07.03.2023 21:16 1,1 C 0,6 C -1,7 C 97 % 1000,8 hPa 0,0 l/m 0 min 0 min 0 W/m 3,2 km/h (1 Bft) 98,00 %
07.03.2023 21:18 1,1 C 0,6 C -1,7 C 97 % 1000,8 hPa 0,0 l/m 0 min 0 min 0 W/m 3,2 km/h (1 Bft) 97,87 %
07.03.2023 21:20 1,1 C 0,6 C -1,1 C 97 % 1000,8 hPa 0,0 l/m 0 min 0 min 0 W/m 6,4 km/h (2 Bft) 97,83 %
07.03.2023 21:22 1,1 C 0,6 C -1,7 C 97 % 1000,7 hPa 0,0 l/m 0 min 0 min 0 W/m 3,2 km/h (1 Bft) 98,18 %
07.03.2023 21:24 1,1 C 0,6 C -1,7 C 97 % 1000,7 hPa 0,0 l/m 0 min 0 min 0 W/m 3,2 km/h (1 Bft) 97,22 %
07.03.2023 21:26 1,1 C 0,6 C -1,7 C 97 % 1000,8 hPa 0,0 l/m 0 min 0 min 0 W/m 0,0 km/h (0 Bft) 97,87 %
07.03.2023 21:28 1,1 C 0,6 C -1,7 C 97 % 1000,8 hPa 0,0 l/m 0 min 0 min 0 W/m 3,2 km/h (1 Bft) 97,87 %
07.03.2023 21:30 1,1 C 0,6 C -1,7 C 97 % 1000,7 hPa 0,0 l/m 0 min 0 min 0 W/m 6,4 km/h (2 Bft) 97,87 %
07.03.2023 21:32 1,1 C 0,6 C -1,7 C 97 % 1000,8 hPa 0,0 l/m 0 min 0 min 0 W/m 6,4 km/h (2 Bft) 95,74 %
07.03.2023 21:34 1,1 C 0,6 C -1,7 C 97 % 1000,7 hPa 0,0 l/m 0 min 0 min 0 W/m 3,2 km/h (1 Bft) 97,83 %
07.03.2023 21:36 1,0 C 0,6 C -1,7 C 97 % 1000,7 hPa 0,0 l/m 0 min 0 min 0 W/m 3,2 km/h (1 Bft) 91,49 %
07.03.2023 21:38 1,0 C 0,6 C -1,7 C 97 % 1000,8 hPa 0,0 l/m 0 min 0 min 0 W/m 3,2 km/h (1 Bft) 97,87 %
07.03.2023 21:40 1,0 C 0,6 C -1,7 C 97 % 1000,8 hPa 0,0 l/m 0 min 0 min 0 W/m 3,2 km/h (1 Bft) 97,87 %
07.03.2023 21:42 1,0 C 0,6 C -1,7 C 97 % 1000,8 hPa 0,0 l/m 0 min 0 min 0 W/m 3,2 km/h (1 Bft) 54,55 %
07.03.2023 21:44 1,0 C 0,6 C -1,7 C 97 % 1000,9 hPa 0,0 l/m 0 min 0 min 0 W/m 3,2 km/h (1 Bft) 95,74 %
07.03.2023 21:46 1,0 C 0,6 C -1,7 C 97 % 1000,9 hPa 0,0 l/m 0 min 0 min 0 W/m 6,4 km/h (2 Bft) 97,83 %
07.03.2023 21:48 1,0 C 0,6 C -1,7 C 97 % 1000,9 hPa 0,0 l/m 0 min 0 min 0 W/m 9,7 km/h (2 Bft) 97,87 %
07.03.2023 21:50 1,1 C 0,6 C -1,7 C 97 % 1000,9 hPa 0,0 l/m 0 min 0 min 0 W/m 3,2 km/h (1 Bft) 95,74 %
07.03.2023 21:52 1,1 C 0,6 C -1,7 C 97 % 1000,9 hPa 0,0 l/m 0 min 0 min 0 W/m 3,2 km/h (1 Bft) 97,87 %
07.03.2023 21:54 1,0 C 0,6 C -1,7 C 97 % 1000,9 hPa 0,0 l/m 0 min 0 min 0 W/m 0,0 km/h (0 Bft) 100,00 %
07.03.2023 21:56 1,0 C 0,6 C -1,7 C 97 % 1000,8 hPa 0,0 l/m 0 min 0 min 0 W/m 6,4 km/h (2 Bft) 97,87 %
07.03.2023 21:58 1,0 C 0,6 C -1,7 C 97 % 1000,9 hPa 0,0 l/m 0 min 0 min 0 W/m 6,4 km/h (2 Bft) 97,96 %
07.03.2023 22:00 0,9 C 0,6 C -1,7 C 97 % 1000,9 hPa 0,0 l/m 0 min 0 min 0 W/m 3,2 km/h (1 Bft) 100,00 %
07.03.2023 22:02 0,9 C 0,6 C -1,7 C 97 % 1000,9 hPa 0,0 l/m 0 min 0 min 0 W/m 6,4 km/h (2 Bft) 93,62 %
07.03.2023 22:04 0,9 C 0,6 C -1,7 C 97 % 1001,0 hPa 0,0 l/m 0 min 0 min 0 W/m 3,2 km/h (1 Bft) 97,87 %
07.03.2023 22:06 0,9 C 0,6 C -1,7 C 97 % 1001,0 hPa 0,0 l/m 0 min 0 min 0 W/m 3,2 km/h (1 Bft) 96,61 %
07.03.2023 22:08 0,9 C 0,6 C -1,7 C 97 % 1001,0 hPa 0,0 l/m 0 min 0 min 0 W/m 3,2 km/h (1 Bft) 94,29 %
07.03.2023 22:10 0,9 C 0,6 C -1,7 C 97 % 1001,2 hPa 0,0 l/m 0 min 0 min 0 W/m 3,2 km/h (1 Bft) 95,74 %
07.03.2023 22:12 0,9 C 0,6 C -1,7 C 97 % 1001,1 hPa 0,0 l/m 0 min 0 min 0 W/m 3,2 km/h (1 Bft) 95,74 %
07.03.2023 22:14 0,9 C 0,6 C -1,7 C 97 % 1001,1 hPa 0,0 l/m 0 min 0 min 0 W/m 3,2 km/h (1 Bft) 91,30 %
07.03.2023 22:16 0,9 C 0,6 C -1,7 C 97 % 1001,2 hPa 0,0 l/m 0 min 0 min 0 W/m 0,0 km/h (0 Bft) 93,75 %
07.03.2023 22:18 0,9 C 0,6 C -1,7 C 97 % 1001,1 hPa 0,0 l/m 0 min 0 min 0 W/m 6,4 km/h (2 Bft) 93,62 %
07.03.2023 22:20 0,9 C 0,6 C -1,7 C 97 % 1001,2 hPa 0,0 l/m 0 min 0 min 0 W/m 3,2 km/h (1 Bft) 93,62 %
07.03.2023 22:22 0,9 C 0,6 C -1,7 C 97 % 1001,2 hPa 0,0 l/m 0 min 0 min 0 W/m 3,2 km/h (1 Bft) 93,62 %
07.03.2023 22:24 0,9 C 0,6 C -1,7 C 97 % 1001,3 hPa 0,0 l/m 0 min 0 min 0 W/m 3,2 km/h (1 Bft) 93,62 %
07.03.2023 22:26 0,9 C 0,6 C -1,7 C 97 % 1001,3 hPa 0,0 l/m 0 min 0 min 0 W/m 6,4 km/h (2 Bft) 91,84 %
07.03.2023 22:28 0,9 C 0,6 C -1,7 C 97 % 1001,3 hPa 0,0 l/m 0 min 0 min 0 W/m 3,2 km/h (1 Bft) 94,74 %
07.03.2023 22:30 0,9 C 0,6 C -1,7 C 97 % 1001,3 hPa 0,0 l/m 0 min 0 min 0 W/m 3,2 km/h (1 Bft) 96,00 %
07.03.2023 22:32 0,9 C 0,6 C -1,7 C 97 % 1001,2 hPa 0,0 l/m 0 min 0 min 0 W/m 3,2 km/h (1 Bft) 93,62 %
07.03.2023 22:34 0,9 C 0,6 C -1,7 C 97 % 1001,3 hPa 0,0 l/m 0 min 0 min 0 W/m 6,4 km/h (2 Bft) 89,36 %
07.03.2023 22:36 0,9 C 0,6 C -1,7 C 97 % 1001,3 hPa 0,0 l/m 0 min 0 min 0 W/m 3,2 km/h (1 Bft) 95,74 %
07.03.2023 22:38 0,9 C 0,6 C -1,7 C 97 % 1001,3 hPa 0,0 l/m 0 min 0 min 0 W/m 0,0 km/h (0 Bft) 93,62 %
07.03.2023 22:40 0,9 C 0,6 C -1,7 C 97 % 1001,3 hPa 0,0 l/m 0 min 0 min 0 W/m 0,0 km/h (0 Bft) 97,87 %
07.03.2023 22:42 0,9 C 0,6 C -1,7 C 97 % 1001,3 hPa 0,0 l/m 0 min 0 min 0 W/m 0,0 km/h (0 Bft) 95,65 %
07.03.2023 22:44 0,9 C 0,6 C -1,7 C 97 % 1001,3 hPa 0,0 l/m 0 min 0 min 0 W/m 0,0 km/h (0 Bft) 97,73 %
07.03.2023 22:46 0,9 C 0,6 C -1,7 C 97 % 1001,4 hPa 0,0 l/m 0 min 0 min 0 W/m 0,0 km/h (0 Bft) 97,87 %
07.03.2023 22:48 0,9 C 0,6 C -1,7 C 97 % 1001,4 hPa 0,0 l/m 0 min 0 min 0 W/m 0,0 km/h (0 Bft) 96,00 %
07.03.2023 22:50 0,9 C 0,6 C -1,7 C 97 % 1001,4 hPa 0,0 l/m 0 min 0 min 0 W/m 0,0 km/h (0 Bft) 97,87 %
07.03.2023 22:52 0,9 C 0,6 C -1,7 C 97 % 1001,4 hPa 0,0 l/m 0 min 0 min 0 W/m 3,2 km/h (1 Bft) 95,74 %
07.03.2023 22:54 0,9 C 0,6 C -1,7 C 97 % 1001,4 hPa 0,0 l/m 0 min 0 min 0 W/m 6,4 km/h (2 Bft) 97,83 %
07.03.2023 22:56 0,9 C 0,6 C -1,7 C 97 % 1001,4 hPa 0,0 l/m 0 min 0 min 0 W/m 9,7 km/h (2 Bft) 97,87 %
07.03.2023 22:58 0,9 C 0,6 C -1,7 C 97 % 1001,4 hPa 0,0 l/m 0 min 0 min 0 W/m 6,4 km/h (2 Bft) 97,87 %
07.03.2023 23:00 0,9 C 0,6 C -1,7 C 97 % 1001,4 hPa 0,0 l/m 0 min 0 min 0 W/m 9,7 km/h (2 Bft) 95,74 %
07.03.2023 23:02 0,9 C 0,6 C -1,7 C 97 % 1001,5 hPa 0,0 l/m 0 min 0 min 0 W/m 6,4 km/h (2 Bft) 100,00 %
07.03.2023 23:04 0,9 C 0,6 C -1,7 C 97 % 1001,5 hPa 0,0 l/m 0 min 0 min 0 W/m 6,4 km/h (2 Bft) 100,00 %
07.03.2023 23:06 0,9 C 0,6 C -1,7 C 97 % 1001,6 hPa 0,0 l/m 0 min 0 min 0 W/m 6,4 km/h (2 Bft) 97,83 %
07.03.2023 23:08 0,9 C 0,6 C -1,7 C 97 % 1001,6 hPa 0,0 l/m 0 min 0 min 0 W/m 6,4 km/h (2 Bft) 97,92 %
07.03.2023 23:10 0,9 C 0,6 C -1,7 C 97 % 1001,6 hPa 0,0 l/m 0 min 0 min 0 W/m 6,4 km/h (2 Bft) 97,87 %
07.03.2023 23:12 0,9 C 0,6 C -1,7 C 97 % 1001,6 hPa 0,0 l/m 0 min 0 min 0 W/m 6,4 km/h (2 Bft) 97,87 %
07.03.2023 23:14 0,9 C 0,6 C -1,7 C 97 % 1001,6 hPa 0,0 l/m 0 min 0 min 0 W/m 6,4 km/h (2 Bft) 97,87 %
07.03.2023 23:16 0,9 C 0,6 C -1,7 C 97 % 1001,6 hPa 0,0 l/m 0 min 0 min 0 W/m 12,9 km/h (3 Bft) 97,87 %
07.03.2023 23:18 0,9 C 0,6 C -1,7 C 97 % 1001,6 hPa 0,0 l/m 0 min 0 min 0 W/m 12,9 km/h (3 Bft) 97,30 %
07.03.2023 23:20 0,9 C 0,6 C -1,7 C 97 % 1001,7 hPa 0,0 l/m 0 min 0 min 0 W/m 9,7 km/h (2 Bft) 100,00 %
07.03.2023 23:22 0,9 C 0,6 C -1,7 C 97 % 1001,7 hPa 0,0 l/m 0 min 0 min 0 W/m 6,4 km/h (2 Bft) 100,00 %
07.03.2023 23:24 0,9 C 0,6 C -1,7 C 97 % 1001,6 hPa 0,0 l/m 0 min 0 min 0 W/m 6,4 km/h (2 Bft) 95,74 %
07.03.2023 23:26 0,9 C 0,6 C -1,7 C 97 % 1001,7 hPa 0,0 l/m 0 min 0 min 0 W/m 3,2 km/h (1 Bft) 100,00 %
07.03.2023 23:28 0,9 C 0,6 C -1,7 C 97 % 1001,7 hPa 0,0 l/m 0 min 0 min 0 W/m 6,4 km/h (2 Bft) 97,87 %
07.03.2023 23:30 0,9 C 0,6 C -1,7 C 97 % 1001,7 hPa 0,0 l/m 0 min 0 min 0 W/m 3,2 km/h (1 Bft) 97,87 %
07.03.2023 23:32 0,9 C 0,6 C -1,7 C 97 % 1001,7 hPa 0,0 l/m 0 min 0 min 0 W/m 12,9 km/h (3 Bft) 95,83 %
07.03.2023 23:34 0,9 C 0,6 C -1,7 C 97 % 1001,7 hPa 0,0 l/m 0 min 0 min 0 W/m 6,4 km/h (2 Bft) 97,83 %
07.03.2023 23:36 0,9 C 0,6 C -1,7 C 97 % 1001,6 hPa 0,0 l/m 0 min 0 min 0 W/m 6,4 km/h (2 Bft) 97,87 %
07.03.2023 23:38 0,9 C 0,6 C -1,7 C 97 % 1001,6 hPa 0,0 l/m 0 min 0 min 0 W/m 6,4 km/h (2 Bft) 97,92 %
07.03.2023 23:40 0,9 C 0,6 C -1,7 C 97 % 1001,7 hPa 0,0 l/m 0 min 0 min 0 W/m 9,7 km/h (2 Bft) 95,74 %
07.03.2023 23:42 0,9 C 0,6 C -1,7 C 97 % 1001,6 hPa 0,0 l/m 0 min 0 min 0 W/m 3,2 km/h (1 Bft) 93,62 %
07.03.2023 23:44 0,9 C 0,6 C -1,7 C 97 % 1001,6 hPa 0,0 l/m 0 min 0 min 0 W/m 3,2 km/h (1 Bft) 95,74 %
07.03.2023 23:46 0,9 C 0,6 C -1,7 C 97 % 1001,7 hPa 0,0 l/m 0 min 0 min 0 W/m 3,2 km/h (1 Bft) 100,00 %
07.03.2023 23:48 0,9 C 0,6 C -1,7 C 97 % 1001,7 hPa 0,0 l/m 0 min 0 min 0 W/m 9,7 km/h (2 Bft) 96,15 %
07.03.2023 23:50 0,9 C 0,6 C -1,7 C 97 % 1001,7 hPa 0,0 l/m 0 min 0 min 0 W/m 6,4 km/h (2 Bft) 97,87 %
07.03.2023 23:52 0,9 C 0,6 C -1,7 C 97 % 1001,6 hPa 0,0 l/m 0 min 0 min 0 W/m 12,9 km/h (3 Bft) 95,74 %
07.03.2023 23:54 0,9 C 0,6 C -1,7 C 97 % 1001,6 hPa 0,0 l/m 0 min 0 min 0 W/m 6,4 km/h (2 Bft) 95,74 %
07.03.2023 23:56 0,9 C 0,6 C -1,7 C 97 % 1001,6 hPa 0,0 l/m 0 min 0 min 0 W/m 3,2 km/h (1 Bft) 95,74 %
07.03.2023 23:58 0,9 C 0,6 C -1,7 C 97 % 1001,6 hPa 0,0 l/m 0 min 0 min 0 W/m 6,4 km/h (2 Bft) 95,74 %
_ Min-Zeit 22:00 18:20 18:54 00:00 08:16 - - - - 12:44 16:54
Minimum _ 0,9 C 0,6 C -1,7 C 93 % 996,7 hPa - - - - 0,0 km/h (0 Bft) 45,95 %
_ Max-Zeit 09:38 02:22 02:38 12:34 23:20 00:58 00:00 02:14 13:22 01:54 01:14
Maximum _ 4,4 C 3,9 C 0,6 C 97 % 1001,7 hPa 0,2 l/m 0 min 4 min 138 W/m 41,8 km/h
S-SW (6 Bft)
100,00 %
Durchschnitt _ 2,7 C 2,2 C -0,5 C 96 % 998,8 hPa #9,8 l/m #0 min. #17:42 h 58 W/m 11,9 km/h (2 Bft) 96,74 %
© 2023 W. Hausmann